Time,TemperatureF,DewpointF,PressureIn,WindDirection,WindDirectionDegrees,WindSpeedMPH,WindSpeedGustMPH,Humidity,HourlyPrecipIn,Conditions,Clouds,dailyrainin,SoftwareType,DateUTC
2013-02-05 00:05:00,19.7,8.8,30.07,West,263,2.0,6.0,62,0.00,,,0.00,Wunderground v.1.15,2013-02-05 05:05:00,
2013-02-05 00:07:00,19.7,8.8,30.07,West,265,4.0,6.0,62,0.00,,,0.00,Wunderground v.1.15,2013-02-05 05:07:00,
2013-02-05 00:09:00,19.7,8.8,30.07,West,265,1.0,6.0,62,0.00,,,0.00,Wunderground v.1.15,2013-02-05 05:09:00,
2013-02-05 00:10:00,19.8,8.9,30.07,West,267,2.0,6.0,62,0.00,,,0.00,Wunderground v.1.15,2013-02-05 05:10:00,
2013-02-05 00:13:00,19.8,8.9,30.07,WSW,242,2.0,6.0,62,0.00,,,0.00,Wunderground v.1.15,2013-02-05 05:13:00,
2013-02-05 00:15:00,19.8,8.9,30.07,WSW,242,4.0,6.0,62,0.00,,,0.00,Wunderground v.1.15,2013-02-05 05:15:00,
2013-02-05 00:19:00,19.8,8.9,30.07,SW,234,1.0,3.0,62,0.00,,,0.00,Wunderground v.1.15,2013-02-05 05:19:00,
2013-02-05 00:20:00,19.8,8.9,30.07,SW,226,1.0,3.0,62,0.00,,,0.00,Wunderground v.1.15,2013-02-05 05:20:00,
2013-02-05 00:22:00,19.8,8.9,30.07,WSW,244,1.0,4.0,62,0.00,,,0.00,Wunderground v.1.15,2013-02-05 05:22:00,
2013-02-05 00:23:00,19.8,8.9,30.07,WSW,244,1.0,4.0,62,0.00,,,0.00,Wunderground v.1.15,2013-02-05 05:23:00,
2013-02-05 00:26:00,19.8,8.9,30.07,WSW,244,1.0,4.0,62,0.00,,,0.00,Wunderground v.1.15,2013-02-05 05:26:00,
2013-02-05 00:29:00,19.8,8.9,30.07,WSW,244,1.0,3.0,62,0.00,,,0.00,Wunderground v.1.15,2013-02-05 05:29:00,
2013-02-05 00:32:00,19.8,9.2,30.07,WSW,244,1.0,3.0,63,0.00,,,0.00,Wunderground v.1.15,2013-02-05 05:32:00,
2013-02-05 00:34:00,19.8,9.2,30.07,WSW,244,1.0,3.0,63,0.00,,,0.00,Wunderground v.1.15,2013-02-05 05:34:00,
2013-02-05 00:35:00,19.8,9.2,30.07,WSW,244,3.0,3.0,63,0.00,,,0.00,Wunderground v.1.15,2013-02-05 05:35:00,
2013-02-05 00:38:00,19.8,9.2,30.07,WSW,244,6.0,6.0,63,0.00,,,0.00,Wunderground v.1.15,2013-02-05 05:38:00,
2013-02-05 00:39:00,19.8,8.9,30.07,WSW,242,2.0,6.0,62,0.00,,,0.00,Wunderground v.1.15,2013-02-05 05:39:00,
2013-02-05 00:41:00,19.8,8.9,30.07,WSW,242,2.0,6.0,62,0.00,,,0.00,Wunderground v.1.15,2013-02-05 05:41:00,
2013-02-05 00:43:00,19.9,9.3,30.07,SW,215,5.0,6.0,63,0.00,,,0.00,Wunderground v.1.15,2013-02-05 05:43:00,
2013-02-05 00:46:00,19.9,9.3,30.07,WSW,240,0.0,7.0,63,0.00,,,0.00,Wunderground v.1.15,2013-02-05 05:46:00,
2013-02-05 00:48:00,19.9,9.3,30.07,SW,224,2.0,3.0,63,0.00,,,0.00,Wunderground v.1.15,2013-02-05 05:48:00,
2013-02-05 00:49:00,19.9,9.3,30.07,SW,224,3.0,3.0,63,0.00,,,0.00,Wunderground v.1.15,2013-02-05 05:49:00,
2013-02-05 00:50:00,19.9,9.3,30.07,SW,224,2.0,3.0,63,0.00,,,0.00,Wunderground v.1.15,2013-02-05 05:50:00,
2013-02-05 00:55:00,19.8,9.2,30.07,West,260,1.0,5.0,63,0.00,,,0.00,Wunderground v.1.15,2013-02-05 05:55:00,
2013-02-05 00:56:00,19.8,9.2,30.07,West,260,2.0,5.0,63,0.00,,,0.00,Wunderground v.1.15,2013-02-05 05:56:00,
2013-02-05 01:00:00,19.8,9.2,30.07,West,260,0.0,2.0,63,0.00,,,0.00,Wunderground v.1.15,2013-02-05 06:00:00,
2013-02-05 01:02:00,19.8,9.2,30.07,West,260,0.0,2.0,63,0.00,,,0.00,Wunderground v.1.15,2013-02-05 06:02:00,
2013-02-05 01:04:00,19.8,9.2,30.07,WNW,288,4.0,4.0,63,0.00,,,0.00,Wunderground v.1.15,2013-02-05 06:04:00,
2013-02-05 01:05:00,19.8,9.2,30.07,WNW,284,3.0,4.0,63,0.00,,,0.00,Wunderground v.1.15,2013-02-05 06:05:00,
2013-02-05 01:08:00,19.9,9.7,30.07,WSW,249,1.0,2.0,64,0.00,,,0.00,Wunderground v.1.15,2013-02-05 06:08:00,
2013-02-05 01:09:00,19.8,9.2,30.07,WSW,251,1.0,2.0,63,0.00,,,0.00,Wunderground v.1.15,2013-02-05 06:09:00,
2013-02-05 01:10:00,19.9,9.3,30.07,WSW,251,2.0,2.0,63,0.00,,,0.00,Wunderground v.1.15,2013-02-05 06:10:00,
2013-02-05 01:12:00,19.9,9.3,30.07,West,261,6.0,6.0,63,0.00,,,0.00,Wunderground v.1.15,2013-02-05 06:12:00,
2013-02-05 01:16:00,19.9,9.3,30.07,WSW,256,5.0,6.0,63,0.00,,,0.00,Wunderground v.1.15,2013-02-05 06:16:00,
2013-02-05 01:17:00,19.9,9.3,30.07,WNW,287,4.0,4.0,63,0.00,,,0.00,Wunderground v.1.15,2013-02-05 06:17:00,
2013-02-05 01:20:00,19.9,9.0,30.07,WNW,296,2.0,5.0,62,0.00,,,0.00,Wunderground v.1.15,2013-02-05 06:20:00,
2013-02-05 01:23:00,19.9,9.0,30.07,West,265,2.0,5.0,62,0.00,,,0.00,Wunderground v.1.15,2013-02-05 06:23:00,
2013-02-05 01:24:00,19.9,9.0,30.08,West,273,3.0,5.0,62,0.00,,,0.00,Wunderground v.1.15,2013-02-05 06:24:00,
2013-02-05 01:26:00,19.9,9.0,30.08,WSW,253,5.0,5.0,62,0.00,,,0.00,Wunderground v.1.15,2013-02-05 06:26:00,
2013-02-05 01:29:00,19.9,9.3,30.08,WSW,243,0.0,4.0,63,0.00,,,0.00,Wunderground v.1.15,2013-02-05 06:29:00,
2013-02-05 01:30:00,20.0,9.4,30.08,WSW,243,1.0,4.0,63,0.00,,,0.00,Wunderground v.1.15,2013-02-05 06:30:00,
2013-02-05 01:34:00,20.0,9.4,30.08,WNW,296,1.0,4.0,63,0.00,,,0.00,Wunderground v.1.15,2013-02-05 06:34:00,
2013-02-05 01:35:00,20.0,9.4,30.08,WNW,296,0.0,4.0,63,0.00,,,0.00,Wunderground v.1.15,2013-02-05 06:35:00,
2013-02-05 01:37:00,19.9,9.3,30.08,WNW,288,2.0,2.0,63,0.00,,,0.00,Wunderground v.1.15,2013-02-05 06:37:00,
2013-02-05 01:42:00,19.9,9.3,30.08,WNW,290,2.0,2.0,63,0.00,,,0.00,Wunderground v.1.15,2013-02-05 06:42:00,
2013-02-05 01:44:00,19.9,9.3,30.08,WSW,239,4.0,4.0,63,0.00,,,0.00,Wunderground v.1.15,2013-02-05 06:44:00,
2013-02-05 01:46:00,19.9,9.3,30.08,WSW,239,0.0,4.0,63,0.00,,,0.00,Wunderground v.1.15,2013-02-05 06:46:00,
2013-02-05 01:47:00,19.9,9.3,30.08,WSW,239,0.0,2.0,63,0.00,,,0.00,Wunderground v.1.15,2013-02-05 06:47:00,
2013-02-05 01:48:00,19.9,9.7,30.08,WSW,239,3.0,3.0,64,0.00,,,0.00,Wunderground v.1.15,2013-02-05 06:48:00,
2013-02-05 01:51:00,19.9,9.3,30.08,West,269,2.0,3.0,63,0.00,,,0.00,Wunderground v.1.15,2013-02-05 06:51:00,
2013-02-05 01:52:00,20.0,9.4,30.08,West,269,1.0,3.0,63,0.00,,,0.00,Wunderground v.1.15,2013-02-05 06:52:00,
2013-02-05 01:56:00,19.9,9.3,30.08,West,270,0.0,3.0,63,0.00,,,0.00,Wunderground v.1.15,2013-02-05 06:56:00,
2013-02-05 01:57:00,19.9,9.3,30.08,West,270,0.0,1.0,63,0.00,,,0.00,Wunderground v.1.15,2013-02-05 06:57:00,
2013-02-05 01:58:00,19.9,9.7,30.08,West,270,0.0,1.0,64,0.00,,,0.00,Wunderground v.1.15,2013-02-05 06:58:00,
2013-02-05 02:00:00,20.0,9.8,30.08,WSW,240,1.0,1.0,64,0.00,,,0.00,Wunderground v.1.15,2013-02-05 07:00:00,
2013-02-05 02:04:00,20.0,9.8,30.08,WSW,240,1.0,1.0,64,0.00,,,0.00,Wunderground v.1.15,2013-02-05 07:04:00,
2013-02-05 02:06:00,19.9,9.7,30.08,WSW,240,0.0,1.0,64,0.00,,,0.00,Wunderground v.1.15,2013-02-05 07:06:00,
2013-02-05 02:10:00,19.9,9.7,30.08,WSW,240,1.0,2.0,64,0.00,,,0.00,Wunderground v.1.15,2013-02-05 07:10:00,
2013-02-05 02:11:00,20.0,9.8,30.08,WSW,240,1.0,2.0,64,0.00,,,0.00,Wunderground v.1.15,2013-02-05 07:11:00,
2013-02-05 02:15:00,19.9,9.7,30.08,WSW,240,0.0,2.0,64,0.00,,,0.00,Wunderground v.1.15,2013-02-05 07:15:00,
2013-02-05 02:16:00,20.0,9.8,30.08,WSW,240,0.0,2.0,64,0.00,,,0.00,Wunderground v.1.15,2013-02-05 07:16:00,
2013-02-05 02:18:00,20.0,9.8,30.08,WSW,240,0.0,1.0,64,0.00,,,0.00,Wunderground v.1.15,2013-02-05 07:18:00,
2013-02-05 02:20:00,20.0,9.8,30.08,WSW,240,2.0,2.0,64,0.00,,,0.00,Wunderground v.1.15,2013-02-05 07:20:00,
2013-02-05 02:21:00,20.0,9.8,30.08,WSW,240,2.0,2.0,64,0.00,,,0.00,Wunderground v.1.15,2013-02-05 07:21:00,
2013-02-05 02:23:00,20.0,9.8,30.08,WSW,240,0.0,3.0,64,0.00,,,0.00,Wunderground v.1.15,2013-02-05 07:23:00,
2013-02-05 02:25:00,19.9,9.7,30.08,WSW,240,0.0,3.0,64,0.00,,,0.00,Wunderground v.1.15,2013-02-05 07:25:00,
2013-02-05 02:26:00,19.9,9.7,30.08,WSW,240,1.0,3.0,64,0.00,,,0.00,Wunderground v.1.15,2013-02-05 07:26:00,
2013-02-05 02:28:00,19.9,9.7,30.08,WSW,240,0.0,1.0,64,0.00,,,0.00,Wunderground v.1.15,2013-02-05 07:28:00,
2013-02-05 02:30:00,19.9,9.7,30.08,WSW,240,0.0,1.0,64,0.00,,,0.00,Wunderground v.1.15,2013-02-05 07:30:00,
2013-02-05 02:31:00,20.0,9.8,30.07,WSW,240,0.0,1.0,64,0.00,,,0.00,Wunderground v.1.15,2013-02-05 07:31:00,
2013-02-05 02:34:00,20.0,9.8,30.07,WSW,240,0.0,1.0,64,0.00,,,0.00,Wunderground v.1.15,2013-02-05 07:34:00,
2013-02-05 02:36:00,20.0,9.8,30.08,WSW,240,1.0,1.0,64,0.00,,,0.00,Wunderground v.1.15,2013-02-05 07:36:00,
2013-02-05 02:39:00,19.9,9.7,30.07,WSW,240,0.0,2.0,64,0.00,,,0.00,Wunderground v.1.15,2013-02-05 07:39:00,
2013-02-05 02:41:00,19.9,9.7,30.08,WSW,240,0.0,2.0,64,0.00,,,0.00,Wunderground v.1.15,2013-02-05 07:41:00,
2013-02-05 02:44:00,19.9,9.7,30.08,WSW,240,1.0,2.0,64,0.00,,,0.00,Wunderground v.1.15,2013-02-05 07:44:00,
2013-02-05 02:46:00,19.9,9.7,30.08,WSW,240,0.0,2.0,64,0.00,,,0.00,Wunderground v.1.15,2013-02-05 07:46:00,
2013-02-05 02:47:00,19.9,9.7,30.08,WSW,240,0.0,2.0,64,0.00,,,0.00,Wunderground v.1.15,2013-02-05 07:47:00,
2013-02-05 02:49:00,20.0,9.8,30.08,WSW,240,0.0,0.0,64,0.00,,,0.00,Wunderground v.1.15,2013-02-05 07:49:00,
2013-02-05 02:51:00,20.0,9.8,30.08,WSW,240,1.0,1.0,64,0.00,,,0.00,Wunderground v.1.15,2013-02-05 07:51:00,
2013-02-05 02:52:00,20.0,9.8,30.08,WSW,240,0.0,1.0,64,0.00,,,0.00,Wunderground v.1.15,2013-02-05 07:52:00,
2013-02-05 02:55:00,19.9,9.7,30.08,WSW,240,0.0,1.0,64,0.00,,,0.00,Wunderground v.1.15,2013-02-05 07:55:00,
2013-02-05 02:57:00,20.0,9.8,30.08,WSW,240,1.0,1.0,64,0.00,,,0.00,Wunderground v.1.15,2013-02-05 07:57:00,
2013-02-05 03:00:00,19.9,9.7,30.08,WSW,240,0.0,1.0,64,0.00,,,0.00,Wunderground v.1.15,2013-02-05 08:00:00,
2013-02-05 03:02:00,19.9,10.0,30.08,WSW,240,0.0,1.0,65,0.00,,,0.00,Wunderground v.1.15,2013-02-05 08:02:00,
2013-02-05 03:05:00,19.9,10.0,30.08,WSW,240,0.0,1.0,65,0.00,,,0.00,Wunderground v.1.15,2013-02-05 08:05:00,
2013-02-05 03:07:00,20.0,10.1,30.08,WSW,240,0.0,0.0,65,0.00,,,0.00,Wunderground v.1.15,2013-02-05 08:07:00,
2013-02-05 03:10:00,19.9,10.0,30.08,WSW,240,0.0,1.0,65,0.00,,,0.00,Wunderground v.1.15,2013-02-05 08:10:00,
2013-02-05 03:12:00,19.9,10.4,30.08,WSW,240,1.0,1.0,66,0.00,,,0.00,Wunderground v.1.15,2013-02-05 08:12:00,
2013-02-05 03:15:00,20.0,10.1,30.08,WSW,240,1.0,2.0,65,0.00,,,0.00,Wunderground v.1.15,2013-02-05 08:15:00,
2013-02-05 03:17:00,20.0,10.1,30.08,WSW,240,0.0,0.0,65,0.00,,,0.00,Wunderground v.1.15,2013-02-05 08:17:00,
2013-02-05 03:20:00,20.0,10.1,30.08,WSW,240,1.0,2.0,65,0.00,,,0.00,Wunderground v.1.15,2013-02-05 08:20:00,
2013-02-05 03:21:00,20.0,10.1,30.08,WSW,240,2.0,2.0,65,0.00,,,0.00,Wunderground v.1.15,2013-02-05 08:21:00,
2013-02-05 03:23:00,20.0,10.1,30.08,WSW,240,2.0,3.0,65,0.00,,,0.00,Wunderground v.1.15,2013-02-05 08:23:00,
2013-02-05 03:25:00,20.0,10.1,30.08,WSW,240,1.0,3.0,65,0.00,,,0.00,Wunderground v.1.15,2013-02-05 08:25:00,
2013-02-05 03:26:00,20.0,10.1,30.08,WSW,240,0.0,3.0,65,0.00,,,0.00,Wunderground v.1.15,2013-02-05 08:26:00,
2013-02-05 03:28:00,20.3,10.4,30.08,WSW,240,1.0,1.0,65,0.00,,,0.00,Wunderground v.1.15,2013-02-05 08:28:00,
2013-02-05 03:31:00,21.3,16.4,30.08,WSW,240,0.0,3.0,81,0.00,,,0.00,Wunderground v.1.15,2013-02-05 08:31:00,
2013-02-05 03:33:00,21.2,14.2,30.08,WSW,240,1.0,3.0,74,0.00,,,0.00,Wunderground v.1.15,2013-02-05 08:33:00,
2013-02-05 03:34:00,21.1,13.5,30.08,WSW,240,0.0,3.0,72,0.00,,,0.00,Wunderground v.1.15,2013-02-05 08:34:00,
2013-02-05 03:36:00,20.9,12.3,30.08,WSW,240,0.0,3.0,69,0.00,,,0.00,Wunderground v.1.15,2013-02-05 08:36:00,
2013-02-05 03:38:00,21.6,16.1,30.07,WSW,240,0.0,1.0,79,0.00,,,0.00,Wunderground v.1.15,2013-02-05 08:38:00,
2013-02-05 03:39:00,21.7,16.2,30.07,WSW,240,0.0,1.0,79,0.00,,,0.00,Wunderground v.1.15,2013-02-05 08:39:00,
2013-02-05 03:41:00,22.6,18.2,30.07,WSW,240,1.0,2.0,83,0.00,,,0.00,Wunderground v.1.15,2013-02-05 08:41:00,
2013-02-05 03:43:00,22.2,15.2,30.07,WSW,240,0.0,2.0,74,0.00,,,0.00,Wunderground v.1.15,2013-02-05 08:43:00,
2013-02-05 03:44:00,22.1,15.1,30.07,WSW,240,0.0,2.0,74,0.00,,,0.00,Wunderground v.1.15,2013-02-05 08:44:00,
2013-02-05 03:47:00,21.6,12.7,30.07,WSW,240,1.0,2.0,68,0.00,,,0.00,Wunderground v.1.15,2013-02-05 08:47:00,
2013-02-05 03:49:00,21.2,11.3,30.07,WSW,240,1.0,2.0,65,0.00,,,0.00,Wunderground v.1.15,2013-02-05 08:49:00,
2013-02-05 03:52:00,20.8,11.2,30.07,WSW,240,0.0,2.0,66,0.00,,,0.00,Wunderground v.1.15,2013-02-05 08:52:00,
2013-02-05 03:54:00,20.7,11.5,30.07,WSW,240,0.0,2.0,67,0.00,,,0.00,Wunderground v.1.15,2013-02-05 08:54:00,
2013-02-05 03:55:00,20.7,12.5,30.07,WSW,240,0.0,2.0,70,0.00,,,0.00,Wunderground v.1.15,2013-02-05 08:55:00,
2013-02-05 03:57:00,20.6,12.0,30.07,WSW,240,0.0,2.0,69,0.00,,,0.00,Wunderground v.1.15,2013-02-05 08:57:00,
2013-02-05 03:59:00,20.8,12.9,30.07,WSW,240,0.0,1.0,71,0.00,,,0.00,Wunderground v.1.15,2013-02-05 08:59:00,
2013-02-05 04:01:00,20.9,13.6,30.08,WSW,240,1.0,1.0,73,0.00,,,0.00,Wunderground v.1.15,2013-02-05 09:01:00,
2013-02-05 04:02:00,21.5,15.4,30.07,WSW,240,0.0,1.0,77,0.00,,,0.00,Wunderground v.1.15,2013-02-05 09:02:00,
2013-02-05 04:04:00,21.6,15.8,30.07,WSW,240,0.0,1.0,78,0.00,,,0.00,Wunderground v.1.15,2013-02-05 09:04:00,
2013-02-05 04:06:00,21.8,15.4,30.07,WSW,240,0.0,1.0,76,0.00,,,0.00,Wunderground v.1.15,2013-02-05 09:06:00,
2013-02-05 04:07:00,22.0,16.5,30.07,WSW,240,0.0,0.0,79,0.00,,,0.00,Wunderground v.1.15,2013-02-05 09:07:00,
2013-02-05 04:09:00,21.9,14.9,30.07,WSW,240,0.0,0.0,74,0.00,,,0.00,Wunderground v.1.15,2013-02-05 09:09:00,
2013-02-05 04:11:00,23.1,18.4,30.07,WSW,240,0.0,1.0,82,0.00,,,0.00,Wunderground v.1.15,2013-02-05 09:11:00,
2013-02-05 04:12:00,23.8,20.2,30.07,WSW,240,0.0,1.0,86,0.00,,,0.00,Wunderground v.1.15,2013-02-05 09:12:00,
2013-02-05 04:15:00,24.4,21.1,30.07,WSW,240,0.0,1.0,87,0.00,,,0.00,Wunderground v.1.15,2013-02-05 09:15:00,
2013-02-05 04:16:00,23.8,19.1,30.07,WSW,240,0.0,1.0,82,0.00,,,0.00,Wunderground v.1.15,2013-02-05 09:16:00,
2013-02-05 04:17:00,23.3,17.7,30.07,WSW,240,0.0,0.0,79,0.00,,,0.00,Wunderground v.1.15,2013-02-05 09:17:00,
2013-02-05 04:20:00,22.6,14.9,30.07,WSW,240,0.0,0.0,72,0.00,,,0.00,Wunderground v.1.15,2013-02-05 09:20:00,
2013-02-05 04:21:00,22.3,14.0,30.07,WSW,240,0.0,0.0,70,0.00,,,0.00,Wunderground v.1.15,2013-02-05 09:21:00,
2013-02-05 04:23:00,21.9,13.0,30.07,WSW,240,0.0,0.0,68,0.00,,,0.00,Wunderground v.1.15,2013-02-05 09:23:00,
2013-02-05 04:25:00,21.5,12.2,30.07,WSW,240,0.0,0.0,67,0.00,,,0.00,Wunderground v.1.15,2013-02-05 09:25:00,
2013-02-05 04:26:00,21.4,12.1,30.07,WSW,240,0.0,0.0,67,0.00,,,0.00,Wunderground v.1.15,2013-02-05 09:26:00,
2013-02-05 04:28:00,21.2,11.9,30.07,WSW,240,0.0,1.0,67,0.00,,,0.00,Wunderground v.1.15,2013-02-05 09:28:00,
2013-02-05 04:31:00,21.0,11.8,30.07,WSW,240,0.0,1.0,67,0.00,,,0.00,Wunderground v.1.15,2013-02-05 09:31:00,
2013-02-05 04:32:00,20.9,11.7,30.07,WSW,240,0.0,1.0,67,0.00,,,0.00,Wunderground v.1.15,2013-02-05 09:32:00,
2013-02-05 04:33:00,20.8,11.6,30.08,WSW,240,0.0,1.0,67,0.00,,,0.00,Wunderground v.1.15,2013-02-05 09:33:00,
2013-02-05 04:36:00,20.7,11.5,30.08,WSW,240,0.0,1.0,67,0.00,,,0.00,Wunderground v.1.15,2013-02-05 09:36:00,
2013-02-05 04:37:00,20.6,11.4,30.08,WSW,240,0.0,0.0,67,0.00,,,0.00,Wunderground v.1.15,2013-02-05 09:37:00,
2013-02-05 04:38:00,20.6,11.4,30.08,WSW,240,0.0,1.0,67,0.00,,,0.00,Wunderground v.1.15,2013-02-05 09:38:00,
2013-02-05 04:39:00,20.5,11.3,30.08,WSW,240,0.0,1.0,67,0.00,,,0.00,Wunderground v.1.15,2013-02-05 09:39:00,
2013-02-05 04:41:00,20.6,11.7,30.08,WSW,240,0.0,1.0,68,0.00,,,0.00,Wunderground v.1.15,2013-02-05 09:41:00,
2013-02-05 04:42:00,20.6,13.3,30.08,WSW,240,0.0,1.0,73,0.00,,,0.00,Wunderground v.1.15,2013-02-05 09:42:00,
2013-02-05 04:44:00,20.6,12.7,30.08,WSW,240,0.0,1.0,71,0.00,,,0.00,Wunderground v.1.15,2013-02-05 09:44:00,
2013-02-05 04:45:00,20.6,12.7,30.08,WSW,240,0.0,1.0,71,0.00,,,0.00,Wunderground v.1.15,2013-02-05 09:45:00,
2013-02-05 04:46:00,20.6,12.0,30.08,WSW,240,0.0,1.0,69,0.00,,,0.00,Wunderground v.1.15,2013-02-05 09:46:00,
2013-02-05 04:47:00,20.6,12.4,30.08,WSW,240,0.0,0.0,70,0.00,,,0.00,Wunderground v.1.15,2013-02-05 09:47:00,
2013-02-05 04:50:00,20.5,12.3,30.08,WSW,240,0.0,0.0,70,0.00,,,0.00,Wunderground v.1.15,2013-02-05 09:50:00,
2013-02-05 04:51:00,20.4,11.8,30.08,WSW,240,0.0,1.0,69,0.00,,,0.00,Wunderground v.1.15,2013-02-05 09:51:00,
2013-02-05 04:53:00,20.5,11.9,30.08,WSW,240,0.0,1.0,69,0.00,,,0.00,Wunderground v.1.15,2013-02-05 09:53:00,
2013-02-05 04:55:00,20.4,11.8,30.08,WSW,240,0.0,1.0,69,0.00,,,0.00,Wunderground v.1.15,2013-02-05 09:55:00,
2013-02-05 04:56:00,20.8,14.7,30.08,WSW,240,0.0,1.0,77,0.00,,,0.00,Wunderground v.1.15,2013-02-05 09:56:00,
2013-02-05 04:58:00,21.6,16.1,30.08,WSW,240,0.0,0.0,79,0.00,,,0.00,Wunderground v.1.15,2013-02-05 09:58:00,
2013-02-05 05:00:00,21.7,17.1,30.08,WSW,240,0.0,0.0,82,0.00,,,0.00,Wunderground v.1.15,2013-02-05 10:00:00,
2013-02-05 05:01:00,21.7,15.9,30.08,WSW,240,0.0,0.0,78,0.00,,,0.00,Wunderground v.1.15,2013-02-05 10:01:00,
2013-02-05 05:04:00,21.6,15.5,30.08,WSW,240,0.0,0.0,77,0.00,,,0.00,Wunderground v.1.15,2013-02-05 10:04:00,
2013-02-05 05:05:00,21.6,14.9,30.08,WSW,240,0.0,1.0,75,0.00,,,0.00,Wunderground v.1.15,2013-02-05 10:05:00,
2013-02-05 05:07:00,22.0,16.5,30.08,WSW,240,0.0,1.0,79,0.00,,,0.00,Wunderground v.1.15,2013-02-05 10:07:00,
2013-02-05 05:08:00,22.0,16.2,30.08,WSW,240,0.0,0.0,78,0.00,,,0.00,Wunderground v.1.15,2013-02-05 10:08:00,
2013-02-05 05:10:00,22.1,16.6,30.08,WSW,240,0.0,0.0,79,0.00,,,0.00,Wunderground v.1.15,2013-02-05 10:10:00,
2013-02-05 05:12:00,22.1,16.0,30.08,WSW,240,0.0,0.0,77,0.00,,,0.00,Wunderground v.1.15,2013-02-05 10:12:00,
2013-02-05 05:14:00,21.8,14.5,30.08,WSW,240,1.0,1.0,73,0.00,,,0.00,Wunderground v.1.15,2013-02-05 10:14:00,
2013-02-05 05:15:00,21.6,13.6,30.08,WSW,240,0.0,2.0,71,0.00,,,0.00,Wunderground v.1.15,2013-02-05 10:15:00,
2013-02-05 05:16:00,21.6,13.6,30.08,WSW,240,0.0,2.0,71,0.00,,,0.00,Wunderground v.1.15,2013-02-05 10:16:00,
2013-02-05 05:17:00,21.6,14.0,30.08,WSW,240,0.0,2.0,72,0.00,,,0.00,Wunderground v.1.15,2013-02-05 10:17:00,
2013-02-05 05:19:00,21.8,14.5,30.08,WSW,240,0.0,1.0,73,0.00,,,0.00,Wunderground v.1.15,2013-02-05 10:19:00,
2013-02-05 05:21:00,21.7,15.9,30.08,WSW,240,0.0,1.0,78,0.00,,,0.00,Wunderground v.1.15,2013-02-05 10:21:00,
2013-02-05 05:22:00,21.8,15.7,30.08,WSW,240,0.0,1.0,77,0.00,,,0.00,Wunderground v.1.15,2013-02-05 10:22:00,
2013-02-05 05:24:00,22.1,16.9,30.08,WSW,240,1.0,2.0,80,0.00,,,0.00,Wunderground v.1.15,2013-02-05 10:24:00,
2013-02-05 05:26:00,21.8,14.8,30.08,WSW,240,0.0,2.0,74,0.00,,,0.00,Wunderground v.1.15,2013-02-05 10:26:00,
2013-02-05 05:27:00,21.6,14.0,30.08,WSW,240,0.0,0.0,72,0.00,,,0.00,Wunderground v.1.15,2013-02-05 10:27:00,
2013-02-05 05:30:00,21.3,12.7,30.08,WSW,240,0.0,1.0,69,0.00,,,0.00,Wunderground v.1.15,2013-02-05 10:30:00,
2013-02-05 05:31:00,21.1,12.5,30.08,WSW,240,0.0,1.0,69,0.00,,,0.00,Wunderground v.1.15,2013-02-05 10:31:00,
2013-02-05 05:32:00,21.1,12.5,30.08,WSW,240,0.0,1.0,69,0.00,,,0.00,Wunderground v.1.15,2013-02-05 10:32:00,
2013-02-05 05:35:00,20.8,12.2,30.08,WSW,240,0.0,1.0,69,0.00,,,0.00,Wunderground v.1.15,2013-02-05 10:35:00,
2013-02-05 05:36:00,20.7,12.1,30.08,WSW,240,0.0,1.0,69,0.00,,,0.00,Wunderground v.1.15,2013-02-05 10:36:00,
2013-02-05 05:37:00,20.7,12.1,30.08,WSW,240,0.0,0.0,69,0.00,,,0.00,Wunderground v.1.15,2013-02-05 10:37:00,
2013-02-05 05:40:00,20.6,12.4,30.08,WSW,240,0.0,0.0,70,0.00,,,0.00,Wunderground v.1.15,2013-02-05 10:40:00,
2013-02-05 05:41:00,20.6,12.4,30.08,WSW,240,0.0,0.0,70,0.00,,,0.00,Wunderground v.1.15,2013-02-05 10:41:00,
2013-02-05 05:42:00,20.5,12.3,30.08,WSW,240,0.0,0.0,70,0.00,,,0.00,Wunderground v.1.15,2013-02-05 10:42:00,
2013-02-05 05:43:00,20.5,12.3,30.08,WSW,240,0.0,0.0,70,0.00,,,0.00,Wunderground v.1.15,2013-02-05 10:43:00,
2013-02-05 05:45:00,20.4,12.2,30.08,WSW,240,0.0,0.0,70,0.00,,,0.00,Wunderground v.1.15,2013-02-05 10:45:00,
2013-02-05 05:46:00,20.4,12.2,30.08,WSW,240,1.0,1.0,70,0.00,,,0.00,Wunderground v.1.15,2013-02-05 10:46:00,
2013-02-05 05:48:00,20.4,12.2,30.08,WSW,240,0.0,1.0,70,0.00,,,0.00,Wunderground v.1.15,2013-02-05 10:48:00,
2013-02-05 05:50:00,20.4,12.2,30.08,WSW,240,1.0,2.0,70,0.00,,,0.00,Wunderground v.1.15,2013-02-05 10:50:00,
2013-02-05 05:52:00,20.4,12.2,30.08,WSW,240,2.0,2.0,70,0.00,,,0.00,Wunderground v.1.15,2013-02-05 10:52:00,
2013-02-05 05:53:00,20.4,12.2,30.08,WSW,240,1.0,2.0,70,0.00,,,0.00,Wunderground v.1.15,2013-02-05 10:53:00,
2013-02-05 05:54:00,20.4,11.8,30.08,WSW,240,0.0,2.0,69,0.00,,,0.00,Wunderground v.1.15,2013-02-05 10:54:00,
2013-02-05 05:55:00,20.3,11.7,30.08,WSW,240,1.0,2.0,69,0.00,,,0.00,Wunderground v.1.15,2013-02-05 10:55:00,
2013-02-05 05:57:00,20.3,12.1,30.08,WSW,240,0.0,1.0,70,0.00,,,0.00,Wunderground v.1.15,2013-02-05 10:57:00,
2013-02-05 05:58:00,20.3,12.1,30.08,WSW,240,0.0,1.0,70,0.00,,,0.00,Wunderground v.1.15,2013-02-05 10:58:00,
2013-02-05 05:59:00,20.3,12.1,30.08,WSW,240,0.0,1.0,70,0.00,,,0.00,Wunderground v.1.15,2013-02-05 10:59:00,
2013-02-05 06:01:00,20.3,12.1,30.08,WSW,240,0.0,1.0,70,0.00,,,0.00,Wunderground v.1.15,2013-02-05 11:01:00,
2013-02-05 06:03:00,20.3,12.1,30.08,WSW,240,1.0,1.0,70,0.00,,,0.00,Wunderground v.1.15,2013-02-05 11:03:00,
2013-02-05 06:05:00,20.3,12.1,30.08,WSW,240,0.0,1.0,70,0.00,,,0.00,Wunderground v.1.15,2013-02-05 11:05:00,
2013-02-05 06:06:00,20.2,12.0,30.08,WSW,240,0.0,1.0,70,0.00,,,0.00,Wunderground v.1.15,2013-02-05 11:06:00,
2013-02-05 06:08:00,20.2,12.0,30.08,WSW,240,0.0,0.0,70,0.00,,,0.00,Wunderground v.1.15,2013-02-05 11:08:00,
2013-02-05 06:10:00,20.2,12.3,30.08,WSW,240,0.0,0.0,71,0.00,,,0.00,Wunderground v.1.15,2013-02-05 11:10:00,
2013-02-05 06:11:00,20.2,12.3,30.08,WSW,240,0.0,0.0,71,0.00,,,0.00,Wunderground v.1.15,2013-02-05 11:11:00,
2013-02-05 06:13:00,20.2,12.3,30.08,WSW,240,0.0,1.0,71,0.00,,,0.00,Wunderground v.1.15,2013-02-05 11:13:00,
2013-02-05 06:15:00,20.2,12.0,30.08,WSW,240,0.0,1.0,70,0.00,,,0.00,Wunderground v.1.15,2013-02-05 11:15:00,
2013-02-05 06:17:00,20.2,12.0,30.08,WSW,240,0.0,1.0,70,0.00,,,0.00,Wunderground v.1.15,2013-02-05 11:17:00,
2013-02-05 06:18:00,20.2,12.0,30.08,WSW,240,0.0,0.0,70,0.00,,,0.00,Wunderground v.1.15,2013-02-05 11:18:00,
2013-02-05 06:19:00,20.2,12.0,30.08,WSW,240,0.0,0.0,70,0.00,,,0.00,Wunderground v.1.15,2013-02-05 11:19:00,
2013-02-05 06:20:00,20.2,12.3,30.08,WSW,240,0.0,0.0,71,0.00,,,0.00,Wunderground v.1.15,2013-02-05 11:20:00,
2013-02-05 06:22:00,20.1,11.9,30.08,WSW,240,0.0,1.0,70,0.00,,,0.00,Wunderground v.1.15,2013-02-05 11:22:00,
2013-02-05 06:23:00,20.1,11.9,30.08,WSW,240,0.0,1.0,70,0.00,,,0.00,Wunderground v.1.15,2013-02-05 11:23:00,
2013-02-05 06:24:00,20.1,11.9,30.08,WSW,240,0.0,1.0,70,0.00,,,0.00,Wunderground v.1.15,2013-02-05 11:24:00,
2013-02-05 06:25:00,20.1,12.2,30.08,WSW,240,0.0,1.0,71,0.00,,,0.00,Wunderground v.1.15,2013-02-05 11:25:00,
2013-02-05 06:27:00,20.5,13.8,30.08,WSW,240,0.0,0.0,75,0.00,,,0.00,Wunderground v.1.15,2013-02-05 11:27:00,
2013-02-05 06:28:00,20.6,14.8,30.09,WSW,240,0.0,0.0,78,0.00,,,0.00,Wunderground v.1.15,2013-02-05 11:28:00,
2013-02-05 06:30:00,20.7,14.6,30.09,WSW,240,0.0,0.0,77,0.00,,,0.00,Wunderground v.1.15,2013-02-05 11:30:00,
2013-02-05 06:33:00,20.7,13.7,30.09,WSW,240,0.0,1.0,74,0.00,,,0.00,Wunderground v.1.15,2013-02-05 11:33:00,
2013-02-05 06:34:00,20.7,13.4,30.09,WSW,240,0.0,1.0,73,0.00,,,0.00,Wunderground v.1.15,2013-02-05 11:34:00,
2013-02-05 06:35:00,20.7,13.4,30.09,WSW,240,0.0,1.0,73,0.00,,,0.00,Wunderground v.1.15,2013-02-05 11:35:00,
2013-02-05 06:38:00,20.6,13.3,30.09,WSW,240,0.0,0.0,73,0.00,,,0.00,Wunderground v.1.15,2013-02-05 11:38:00,
2013-02-05 06:39:00,20.7,13.7,30.09,WSW,240,0.0,0.0,74,0.00,,,0.00,Wunderground v.1.15,2013-02-05 11:39:00,
2013-02-05 06:40:00,20.9,13.9,30.09,WSW,240,0.0,0.0,74,0.00,,,0.00,Wunderground v.1.15,2013-02-05 11:40:00,
2013-02-05 06:43:00,21.9,17.0,30.09,WSW,240,0.0,0.0,81,0.00,,,0.00,Wunderground v.1.15,2013-02-05 11:43:00,
2013-02-05 06:44:00,23.4,18.4,30.09,WSW,240,0.0,0.0,81,0.00,,,0.00,Wunderground v.1.15,2013-02-05 11:44:00,
2013-02-05 06:45:00,25.1,22.0,30.09,WSW,240,0.0,1.0,88,0.00,,,0.00,Wunderground v.1.15,2013-02-05 11:45:00,
2013-02-05 06:48:00,25.9,23.1,30.09,WSW,240,0.0,1.0,89,0.00,,,0.00,Wunderground v.1.15,2013-02-05 11:48:00,
2013-02-05 06:49:00,26.1,23.3,30.09,WSW,240,0.0,1.0,89,0.00,,,0.00,Wunderground v.1.15,2013-02-05 11:49:00,
2013-02-05 06:50:00,27.2,24.4,30.08,WSW,240,0.0,2.0,89,0.00,,,0.00,Wunderground v.1.15,2013-02-05 11:50:00,
2013-02-05 06:51:00,27.6,24.8,30.08,WSW,240,1.0,2.0,89,0.00,,,0.00,Wunderground v.1.15,2013-02-05 11:51:00,
2013-02-05 06:53:00,27.0,23.9,30.09,WSW,240,1.0,2.0,88,0.00,,,0.00,Wunderground v.1.15,2013-02-05 11:53:00,
2013-02-05 06:54:00,26.9,23.8,30.09,WSW,240,0.0,2.0,88,0.00,,,0.00,Wunderground v.1.15,2013-02-05 11:54:00,
2013-02-05 06:55:00,26.3,23.0,30.09,WSW,240,0.0,2.0,87,0.00,,,0.00,Wunderground v.1.15,2013-02-05 11:55:00,
2013-02-05 06:56:00,25.8,22.2,30.09,WSW,240,0.0,2.0,86,0.00,,,0.00,Wunderground v.1.15,2013-02-05 11:56:00,
2013-02-05 06:59:00,24.3,19.3,30.09,WSW,240,0.0,0.0,81,0.00,,,0.00,Wunderground v.1.15,2013-02-05 11:59:00,
2013-02-05 07:00:00,23.4,17.3,30.09,WSW,240,0.0,2.0,77,0.00,,,0.00,Wunderground v.1.15,2013-02-05 12:00:00,
2013-02-05 07:01:00,23.1,16.7,30.09,WSW,240,1.0,2.0,76,0.00,,,0.00,Wunderground v.1.15,2013-02-05 12:01:00,
2013-02-05 07:04:00,22.1,15.1,30.09,WSW,240,0.0,2.0,74,0.00,,,0.00,Wunderground v.1.15,2013-02-05 12:04:00,
2013-02-05 07:05:00,21.8,14.5,30.09,WSW,240,0.0,2.0,73,0.00,,,0.00,Wunderground v.1.15,2013-02-05 12:05:00,
2013-02-05 07:06:00,21.7,14.4,30.09,WSW,240,0.0,2.0,73,0.00,,,0.00,Wunderground v.1.15,2013-02-05 12:06:00,
2013-02-05 07:09:00,21.3,13.7,30.09,WSW,240,0.0,0.0,72,0.00,,,0.00,Wunderground v.1.15,2013-02-05 12:09:00,
2013-02-05 07:10:00,21.3,13.7,30.09,WSW,240,0.0,0.0,72,0.00,,,0.00,Wunderground v.1.15,2013-02-05 12:10:00,
2013-02-05 07:11:00,21.1,13.5,30.09,WSW,240,0.0,1.0,72,0.00,,,0.00,Wunderground v.1.15,2013-02-05 12:11:00,
2013-02-05 07:12:00,21.0,13.4,30.09,WSW,240,0.0,1.0,72,0.00,,,0.00,Wunderground v.1.15,2013-02-05 12:12:00,
2013-02-05 07:14:00,20.7,13.1,30.10,WSW,240,0.0,1.0,72,0.00,,,0.00,Wunderground v.1.15,2013-02-05 12:14:00,
2013-02-05 07:16:00,20.7,13.1,30.09,WSW,240,0.0,1.0,72,0.00,,,0.00,Wunderground v.1.15,2013-02-05 12:16:00,
2013-02-05 07:17:00,20.6,13.3,30.09,WSW,240,0.0,0.0,73,0.00,,,0.00,Wunderground v.1.15,2013-02-05 12:17:00,
2013-02-05 07:19:00,20.4,12.8,30.10,WSW,240,2.0,2.0,72,0.00,,,0.00,Wunderground v.1.15,2013-02-05 12:19:00,
2013-02-05 07:21:00,20.3,12.7,30.10,WSW,240,0.0,2.0,72,0.00,,,0.00,Wunderground v.1.15,2013-02-05 12:21:00,
2013-02-05 07:22:00,20.3,12.7,30.10,WSW,240,0.0,2.0,72,0.00,,,0.00,Wunderground v.1.15,2013-02-05 12:22:00,
2013-02-05 07:25:00,20.3,12.7,30.10,WSW,240,0.0,2.0,72,0.00,,,0.00,Wunderground v.1.15,2013-02-05 12:25:00,
2013-02-05 07:26:00,20.3,12.7,30.10,WSW,240,0.0,2.0,72,0.00,,,0.00,Wunderground v.1.15,2013-02-05 12:26:00,
2013-02-05 07:28:00,20.3,12.7,30.10,WSW,240,0.0,1.0,72,0.00,,,0.00,Wunderground v.1.15,2013-02-05 12:28:00,
2013-02-05 07:30:00,20.3,12.7,30.11,WSW,240,0.0,1.0,72,0.00,,,0.00,Wunderground v.1.15,2013-02-05 12:30:00,
2013-02-05 07:32:00,20.3,12.7,30.11,WSW,240,1.0,1.0,72,0.00,,,0.00,Wunderground v.1.15,2013-02-05 12:32:00,
2013-02-05 07:33:00,20.3,12.4,30.11,WSW,240,1.0,1.0,71,0.00,,,0.00,Wunderground v.1.15,2013-02-05 12:33:00,
2013-02-05 07:36:00,20.3,12.4,30.11,WSW,240,0.0,2.0,71,0.00,,,0.00,Wunderground v.1.15,2013-02-05 12:36:00,
2013-02-05 07:37:00,20.3,12.4,30.11,WSW,240,0.0,2.0,71,0.00,,,0.00,Wunderground v.1.15,2013-02-05 12:37:00,
2013-02-05 07:38:00,20.3,12.4,30.11,WSW,240,0.0,2.0,71,0.00,,,0.00,Wunderground v.1.15,2013-02-05 12:38:00,
2013-02-05 07:41:00,20.4,12.5,30.11,WSW,240,1.0,2.0,71,0.00,,,0.00,Wunderground v.1.15,2013-02-05 12:41:00,
2013-02-05 07:43:00,20.4,12.5,30.11,WSW,240,1.0,2.0,71,0.00,,,0.00,Wunderground v.1.15,2013-02-05 12:43:00,
2013-02-05 07:46:00,20.4,12.5,30.12,WSW,240,0.0,2.0,71,0.00,,,0.00,Wunderground v.1.15,2013-02-05 12:46:00,
2013-02-05 07:48:00,20.4,12.5,30.12,WSW,240,0.0,0.0,71,0.00,,,0.00,Wunderground v.1.15,2013-02-05 12:48:00,
2013-02-05 07:49:00,20.4,12.5,30.12,WSW,240,0.0,0.0,71,0.00,,,0.00,Wunderground v.1.15,2013-02-05 12:49:00,
2013-02-05 07:51:00,20.5,12.6,30.12,WSW,240,0.0,0.0,71,0.00,,,0.00,Wunderground v.1.15,2013-02-05 12:51:00,
2013-02-05 07:53:00,20.7,13.1,30.12,WSW,240,0.0,1.0,72,0.00,,,0.00,Wunderground v.1.15,2013-02-05 12:53:00,
2013-02-05 07:54:00,20.7,13.1,30.12,WSW,240,0.0,1.0,72,0.00,,,0.00,Wunderground v.1.15,2013-02-05 12:54:00,
2013-02-05 07:56:00,20.9,13.3,30.12,WSW,240,0.0,1.0,72,0.00,,,0.00,Wunderground v.1.15,2013-02-05 12:56:00,
2013-02-05 07:58:00,21.0,13.1,30.12,WSW,240,0.0,0.0,71,0.00,,,0.00,Wunderground v.1.15,2013-02-05 12:58:00,
2013-02-05 07:59:00,21.1,13.2,30.12,WSW,240,0.0,0.0,71,0.00,,,0.00,Wunderground v.1.15,2013-02-05 12:59:00,
2013-02-05 08:02:00,21.0,12.7,30.12,WSW,240,1.0,1.0,70,0.00,,,0.00,Wunderground v.1.15,2013-02-05 13:02:00,
2013-02-05 08:03:00,21.0,12.4,30.12,WSW,240,0.0,1.0,69,0.00,,,0.00,Wunderground v.1.15,2013-02-05 13:03:00,
2013-02-05 08:04:00,21.0,12.4,30.12,WSW,240,0.0,1.0,69,0.00,,,0.00,Wunderground v.1.15,2013-02-05 13:04:00,
2013-02-05 08:08:00,20.8,12.2,30.12,WSW,240,0.0,1.0,69,0.00,,,0.00,Wunderground v.1.15,2013-02-05 13:08:00,
2013-02-05 08:09:00,20.8,12.2,30.12,WSW,240,0.0,1.0,69,0.00,,,0.00,Wunderground v.1.15,2013-02-05 13:09:00,
2013-02-05 08:13:00,20.7,12.1,30.13,WSW,240,0.0,1.0,69,0.00,,,0.00,Wunderground v.1.15,2013-02-05 13:13:00,
2013-02-05 08:14:00,20.7,12.1,30.12,WSW,240,0.0,1.0,69,0.00,,,0.00,Wunderground v.1.15,2013-02-05 13:14:00,
2013-02-05 08:18:00,20.7,12.1,30.12,WSW,240,0.0,0.0,69,0.00,,,0.00,Wunderground v.1.15,2013-02-05 13:18:00,
2013-02-05 08:19:00,20.7,12.1,30.12,WSW,240,0.0,0.0,69,0.00,,,0.00,Wunderground v.1.15,2013-02-05 13:19:00,
2013-02-05 08:20:00,20.7,11.8,30.12,WSW,240,0.0,0.0,68,0.00,,,0.00,Wunderground v.1.15,2013-02-05 13:20:00,
2013-02-05 08:23:00,20.7,11.8,30.12,WSW,240,0.0,1.0,68,0.00,,,0.00,Wunderground v.1.15,2013-02-05 13:23:00,
2013-02-05 08:24:00,20.7,11.8,30.12,WSW,240,0.0,1.0,68,0.00,,,0.00,Wunderground v.1.15,2013-02-05 13:24:00,
2013-02-05 08:25:00,20.7,11.8,30.12,WSW,240,0.0,1.0,68,0.00,,,0.00,Wunderground v.1.15,2013-02-05 13:25:00,
2013-02-05 08:28:00,20.7,11.8,30.12,WSW,240,0.0,0.0,68,0.00,,,0.00,Wunderground v.1.15,2013-02-05 13:28:00,
2013-02-05 08:29:00,20.7,11.8,30.12,WSW,240,0.0,0.0,68,0.00,,,0.00,Wunderground v.1.15,2013-02-05 13:29:00,
2013-02-05 08:30:00,20.7,11.8,30.12,WSW,240,0.0,0.0,68,0.00,,,0.00,Wunderground v.1.15,2013-02-05 13:30:00,
2013-02-05 08:31:00,20.7,11.8,30.12,WSW,240,0.0,0.0,68,0.00,,,0.00,Wunderground v.1.15,2013-02-05 13:31:00,
2013-02-05 08:33:00,20.8,12.6,30.12,WSW,240,0.0,1.0,70,0.00,,,0.00,Wunderground v.1.15,2013-02-05 13:33:00,
2013-02-05 08:34:00,20.9,13.0,30.13,WSW,240,0.0,1.0,71,0.00,,,0.00,Wunderground v.1.15,2013-02-05 13:34:00,
2013-02-05 08:35:00,20.9,12.6,30.13,WSW,240,2.0,2.0,70,0.00,,,0.00,Wunderground v.1.15,2013-02-05 13:35:00,
2013-02-05 08:36:00,20.9,12.3,30.13,WSW,240,1.0,2.0,69,0.00,,,0.00,Wunderground v.1.15,2013-02-05 13:36:00,
2013-02-05 08:38:00,20.9,12.0,30.12,WSW,240,0.0,1.0,68,0.00,,,0.00,Wunderground v.1.15,2013-02-05 13:38:00,
2013-02-05 08:40:00,20.9,12.0,30.12,WSW,240,0.0,1.0,68,0.00,,,0.00,Wunderground v.1.15,2013-02-05 13:40:00,
2013-02-05 08:41:00,20.9,12.0,30.12,WSW,240,1.0,1.0,68,0.00,,,0.00,Wunderground v.1.15,2013-02-05 13:41:00,
2013-02-05 08:43:00,20.9,12.0,30.13,WSW,240,2.0,2.0,68,0.00,,,0.00,Wunderground v.1.15,2013-02-05 13:43:00,
2013-02-05 08:45:00,21.0,12.1,30.12,WSW,240,1.0,2.0,68,0.00,,,0.00,Wunderground v.1.15,2013-02-05 13:45:00,
2013-02-05 08:47:00,21.1,12.5,30.12,WSW,240,0.0,2.0,69,0.00,,,0.00,Wunderground v.1.15,2013-02-05 13:47:00,
2013-02-05 08:49:00,22.2,17.5,30.12,WSW,240,0.0,1.0,82,0.00,,,0.00,Wunderground v.1.15,2013-02-05 13:49:00,
2013-02-05 08:50:00,22.2,17.0,30.12,WSW,240,0.0,1.0,80,0.00,,,0.00,Wunderground v.1.15,2013-02-05 13:50:00,
2013-02-05 08:52:00,22.2,16.1,30.12,WSW,240,0.0,1.0,77,0.00,,,0.00,Wunderground v.1.15,2013-02-05 13:52:00,
2013-02-05 08:54:00,22.0,14.3,30.12,WSW,240,0.0,1.0,72,0.00,,,0.00,Wunderground v.1.15,2013-02-05 13:54:00,
2013-02-05 08:55:00,22.2,14.9,30.12,WSW,240,1.0,1.0,73,0.00,,,0.00,Wunderground v.1.15,2013-02-05 13:55:00,
2013-02-05 08:56:00,22.2,15.5,30.12,WSW,240,0.0,1.0,75,0.00,,,0.00,Wunderground v.1.15,2013-02-05 13:56:00,
2013-02-05 08:57:00,22.2,15.5,30.12,WSW,240,1.0,1.0,75,0.00,,,0.00,Wunderground v.1.15,2013-02-05 13:57:00,
2013-02-05 08:59:00,22.2,14.5,30.12,WSW,240,0.0,1.0,72,0.00,,,0.00,Wunderground v.1.15,2013-02-05 13:59:00,
2013-02-05 09:01:00,22.2,15.2,30.12,WSW,240,0.0,1.0,74,0.00,,,0.00,Wunderground v.1.15,2013-02-05 14:01:00,
2013-02-05 09:02:00,22.2,14.2,30.12,WSW,240,1.0,2.0,71,0.00,,,0.00,Wunderground v.1.15,2013-02-05 14:02:00,
2013-02-05 09:04:00,22.1,13.5,30.12,WSW,240,0.0,2.0,69,0.00,,,0.00,Wunderground v.1.15,2013-02-05 14:04:00,
2013-02-05 09:06:00,22.2,14.2,30.12,WSW,240,0.0,2.0,71,0.00,,,0.00,Wunderground v.1.15,2013-02-05 14:06:00,
2013-02-05 09:07:00,22.9,17.7,30.13,WSW,240,0.0,0.0,80,0.00,,,0.00,Wunderground v.1.15,2013-02-05 14:07:00,
2013-02-05 09:08:00,23.2,17.9,30.13,WSW,240,0.0,0.0,80,0.00,,,0.00,Wunderground v.1.15,2013-02-05 14:08:00,
2013-02-05 09:09:00,26.6,23.5,30.12,WSW,240,0.0,1.0,88,0.00,,,0.00,Wunderground v.1.15,2013-02-05 14:09:00,
2013-02-05 09:11:00,29.1,26.5,30.12,WSW,240,1.0,1.0,90,0.00,,,0.00,Wunderground v.1.15,2013-02-05 14:11:00,
2013-02-05 09:12:00,32.8,30.2,30.12,WSW,240,0.0,1.0,90,0.00,,,0.00,Wunderground v.1.15,2013-02-05 14:12:00,
2013-02-05 09:13:00,34.5,31.6,30.12,WSW,240,1.0,1.0,89,0.00,,,0.00,Wunderground v.1.15,2013-02-05 14:13:00,
2013-02-05 09:14:00,35.7,32.8,30.12,WSW,240,0.0,1.0,89,0.00,,,0.00,Wunderground v.1.15,2013-02-05 14:14:00,
2013-02-05 09:16:00,34.2,31.6,30.12,WSW,240,0.0,1.0,90,0.00,,,0.00,Wunderground v.1.15,2013-02-05 14:16:00,
2013-02-05 09:18:00,31.6,29.0,30.12,WSW,240,1.0,1.0,90,0.00,,,0.00,Wunderground v.1.15,2013-02-05 14:18:00,
2013-02-05 09:20:00,27.9,25.6,30.13,WSW,240,2.0,2.0,91,0.00,,,0.00,Wunderground v.1.15,2013-02-05 14:20:00,
2013-02-05 09:21:00,26.0,22.7,30.13,WSW,240,2.0,2.0,87,0.00,,,0.00,Wunderground v.1.15,2013-02-05 14:21:00,
2013-02-05 09:23:00,24.6,19.9,30.12,WSW,240,1.0,2.0,82,0.00,,,0.00,Wunderground v.1.15,2013-02-05 14:23:00,
2013-02-05 09:25:00,24.0,19.3,30.13,WSW,240,0.0,2.0,82,0.00,,,0.00,Wunderground v.1.15,2013-02-05 14:25:00,
2013-02-05 09:26:00,23.5,18.5,30.13,WSW,240,1.0,2.0,81,0.00,,,0.00,Wunderground v.1.15,2013-02-05 14:26:00,
2013-02-05 09:28:00,23.3,17.7,30.13,WSW,240,0.0,1.0,79,0.00,,,0.00,Wunderground v.1.15,2013-02-05 14:28:00,
2013-02-05 09:29:00,23.3,17.7,30.13,WSW,240,0.0,1.0,79,0.00,,,0.00,Wunderground v.1.15,2013-02-05 14:29:00,
2013-02-05 09:30:00,23.3,17.5,30.13,WSW,240,0.0,1.0,78,0.00,,,0.00,Wunderground v.1.15,2013-02-05 14:30:00,
2013-02-05 09:32:00,23.2,16.8,30.13,WSW,240,0.0,1.0,76,0.00,,,0.00,Wunderground v.1.15,2013-02-05 14:32:00,
2013-02-05 09:33:00,23.2,16.4,30.13,WSW,240,0.0,1.0,75,0.00,,,0.00,Wunderground v.1.15,2013-02-05 14:33:00,
2013-02-05 09:34:00,23.1,16.0,30.13,WSW,240,0.0,1.0,74,0.00,,,0.00,Wunderground v.1.15,2013-02-05 14:34:00,
2013-02-05 09:35:00,23.0,15.6,30.13,WSW,240,0.0,2.0,73,0.00,,,0.00,Wunderground v.1.15,2013-02-05 14:35:00,
2013-02-05 09:37:00,22.8,15.1,30.13,WSW,240,0.0,2.0,72,0.00,,,0.00,Wunderground v.1.15,2013-02-05 14:37:00,
2013-02-05 09:38:00,22.9,15.5,30.13,WSW,240,0.0,0.0,73,0.00,,,0.00,Wunderground v.1.15,2013-02-05 14:38:00,
2013-02-05 09:39:00,22.9,15.5,30.13,WSW,240,1.0,1.0,73,0.00,,,0.00,Wunderground v.1.15,2013-02-05 14:39:00,
2013-02-05 09:40:00,22.9,15.5,30.13,WSW,240,2.0,3.0,73,0.00,,,0.00,Wunderground v.1.15,2013-02-05 14:40:00,
2013-02-05 09:42:00,22.7,14.7,30.13,WSW,240,1.0,3.0,71,0.00,,,0.00,Wunderground v.1.15,2013-02-05 14:42:00,
2013-02-05 09:44:00,22.4,14.1,30.13,WSW,240,2.0,3.0,70,0.00,,,0.00,Wunderground v.1.15,2013-02-05 14:44:00,
2013-02-05 09:45:00,22.2,13.9,30.13,WSW,240,1.0,3.0,70,0.00,,,0.00,Wunderground v.1.15,2013-02-05 14:45:00,
2013-02-05 09:47:00,22.0,13.7,30.13,WSW,240,1.0,2.0,70,0.00,,,0.00,Wunderground v.1.15,2013-02-05 14:47:00,
2013-02-05 09:49:00,22.0,14.0,30.13,WSW,240,2.0,2.0,71,0.00,,,0.00,Wunderground v.1.15,2013-02-05 14:49:00,
2013-02-05 09:50:00,22.0,14.0,30.13,WSW,240,2.0,3.0,71,0.00,,,0.00,Wunderground v.1.15,2013-02-05 14:50:00,
2013-02-05 09:52:00,21.8,13.8,30.13,WSW,240,2.0,3.0,71,0.00,,,0.00,Wunderground v.1.15,2013-02-05 14:52:00,
2013-02-05 09:54:00,21.8,13.8,30.13,WSW,240,2.0,3.0,71,0.00,,,0.00,Wunderground v.1.15,2013-02-05 14:54:00,
2013-02-05 09:55:00,21.9,14.3,30.13,WSW,240,0.0,3.0,72,0.00,,,0.00,Wunderground v.1.15,2013-02-05 14:55:00,
2013-02-05 09:56:00,22.0,14.3,30.13,WSW,240,1.0,3.0,72,0.00,,,0.00,Wunderground v.1.15,2013-02-05 14:56:00,
2013-02-05 09:57:00,22.1,14.8,30.13,WSW,240,1.0,1.0,73,0.00,,,0.00,Wunderground v.1.15,2013-02-05 14:57:00,
2013-02-05 09:59:00,22.2,14.5,30.13,WSW,240,2.0,2.0,72,0.00,,,0.00,Wunderground v.1.15,2013-02-05 14:59:00,
2013-02-05 10:01:00,22.2,14.5,30.13,WSW,257,4.0,4.0,72,0.00,,,0.00,Wunderground v.1.15,2013-02-05 15:01:00,
2013-02-05 10:02:00,22.2,14.5,30.13,WSW,258,2.0,4.0,72,0.00,,,0.00,Wunderground v.1.15,2013-02-05 15:02:00,
2013-02-05 10:03:00,22.2,14.2,30.13,WNW,284,3.0,4.0,71,0.00,,,0.00,Wunderground v.1.15,2013-02-05 15:03:00,
2013-02-05 10:04:00,22.2,14.2,30.14,WNW,284,3.0,4.0,71,0.00,,,0.00,Wunderground v.1.15,2013-02-05 15:04:00,
2013-02-05 10:06:00,22.0,14.0,30.13,NW,312,2.0,5.0,71,0.00,,,0.00,Wunderground v.1.15,2013-02-05 15:06:00,
2013-02-05 10:07:00,22.0,14.0,30.13,NW,312,2.0,2.0,71,0.00,,,0.00,Wunderground v.1.15,2013-02-05 15:07:00,
2013-02-05 10:08:00,22.0,14.0,30.14,NW,311,2.0,3.0,71,0.00,,,0.00,Wunderground v.1.15,2013-02-05 15:08:00,
2013-02-05 10:09:00,21.9,13.9,30.13,WNW,298,3.0,4.0,71,0.00,,,0.00,Wunderground v.1.15,2013-02-05 15:09:00,
2013-02-05 10:12:00,21.9,14.3,30.14,WNW,299,1.0,4.0,72,0.00,,,0.00,Wunderground v.1.15,2013-02-05 15:12:00,
2013-02-05 10:13:00,22.0,14.3,30.13,WNW,299,2.0,4.0,72,0.00,,,0.00,Wunderground v.1.15,2013-02-05 15:13:00,
2013-02-05 10:14:00,22.0,14.3,30.13,West,269,3.0,4.0,72,0.00,,,0.00,Wunderground v.1.15,2013-02-05 15:14:00,
2013-02-05 10:17:00,22.0,14.3,30.13,West,266,0.0,4.0,72,0.00,,,0.00,Wunderground v.1.15,2013-02-05 15:17:00,
2013-02-05 10:19:00,22.1,14.8,30.13,West,266,1.0,2.0,73,0.00,,,0.00,Wunderground v.1.15,2013-02-05 15:19:00,
2013-02-05 10:20:00,22.1,14.8,30.13,West,266,1.0,2.0,73,0.00,,,0.00,Wunderground v.1.15,2013-02-05 15:20:00,
2013-02-05 10:22:00,22.2,14.5,30.13,West,266,1.0,3.0,72,0.00,,,0.00,Wunderground v.1.15,2013-02-05 15:22:00,
2013-02-05 10:24:00,22.3,15.0,30.14,West,273,2.0,3.0,73,0.00,,,0.00,Wunderground v.1.15,2013-02-05 15:24:00,
2013-02-05 10:25:00,22.4,15.1,30.13,West,273,1.0,3.0,73,0.00,,,0.00,Wunderground v.1.15,2013-02-05 15:25:00,
2013-02-05 10:27:00,22.5,15.1,30.13,West,273,1.0,2.0,73,0.00,,,0.00,Wunderground v.1.15,2013-02-05 15:27:00,
2013-02-05 10:28:00,22.5,15.1,30.13,West,273,1.0,2.0,73,0.00,,,0.00,Wunderground v.1.15,2013-02-05 15:28:00,
2013-02-05 10:30:00,22.5,14.8,30.13,West,276,3.0,4.0,72,0.00,,,0.00,Wunderground v.1.15,2013-02-05 15:30:00,
2013-02-05 10:32:00,22.4,14.7,30.14,West,267,1.0,4.0,72,0.00,,,0.00,Wunderground v.1.15,2013-02-05 15:32:00,
2013-02-05 10:34:00,22.3,14.6,30.13,West,267,1.0,4.0,72,0.00,,,0.00,Wunderground v.1.15,2013-02-05 15:34:00,
2013-02-05 10:35:00,22.2,14.5,30.14,West,267,1.0,4.0,72,0.00,,,0.00,Wunderground v.1.15,2013-02-05 15:35:00,
2013-02-05 10:36:00,22.2,14.5,30.13,West,267,0.0,4.0,72,0.00,,,0.00,Wunderground v.1.15,2013-02-05 15:36:00,
2013-02-05 10:38:00,22.4,15.1,30.13,West,267,0.0,1.0,73,0.00,,,0.00,Wunderground v.1.15,2013-02-05 15:38:00,
2013-02-05 10:39:00,22.4,15.1,30.13,West,267,0.0,1.0,73,0.00,,,0.00,Wunderground v.1.15,2013-02-05 15:39:00,
2013-02-05 10:40:00,22.5,15.1,30.13,West,267,1.0,2.0,73,0.00,,,0.00,Wunderground v.1.15,2013-02-05 15:40:00,
2013-02-05 10:41:00,22.6,15.2,30.13,West,267,1.0,2.0,73,0.00,,,0.00,Wunderground v.1.15,2013-02-05 15:41:00,
2013-02-05 10:43:00,22.7,15.0,30.13,West,267,1.0,3.0,72,0.00,,,0.00,Wunderground v.1.15,2013-02-05 15:43:00,
2013-02-05 10:44:00,22.7,15.0,30.13,WSW,251,5.0,5.0,72,0.00,,,0.00,Wunderground v.1.15,2013-02-05 15:44:00,
2013-02-05 10:46:00,22.7,15.0,30.13,WSW,251,3.0,5.0,72,0.00,,,0.00,Wunderground v.1.15,2013-02-05 15:46:00,
2013-02-05 10:49:00,22.7,15.0,30.13,WSW,251,0.0,2.0,72,0.00,,,0.00,Wunderground v.1.15,2013-02-05 15:49:00,
2013-02-05 10:51:00,23.0,15.6,30.13,WSW,251,0.0,2.0,73,0.00,,,0.00,Wunderground v.1.15,2013-02-05 15:51:00,
2013-02-05 10:54:00,23.3,15.9,30.13,WSW,251,1.0,2.0,73,0.00,,,0.00,Wunderground v.1.15,2013-02-05 15:54:00,
2013-02-05 10:55:00,23.4,16.0,30.13,WSW,251,0.0,2.0,73,0.00,,,0.00,Wunderground v.1.15,2013-02-05 15:55:00,
2013-02-05 10:57:00,23.5,15.8,30.13,WSW,251,0.0,2.0,72,0.00,,,0.00,Wunderground v.1.15,2013-02-05 15:57:00,
2013-02-05 11:00:00,23.6,15.6,30.13,WSW,251,1.0,3.0,71,0.00,,,0.00,Wunderground v.1.15,2013-02-05 16:00:00,
2013-02-05 11:02:00,23.6,15.6,30.13,WSW,251,0.0,3.0,71,0.00,,,0.00,Wunderground v.1.15,2013-02-05 16:02:00,
2013-02-05 11:05:00,23.6,15.6,30.13,WSW,250,2.0,3.0,71,0.00,,,0.00,Wunderground v.1.15,2013-02-05 16:05:00,
2013-02-05 11:06:00,23.6,15.6,30.13,WSW,250,2.0,3.0,71,0.00,,,0.00,Wunderground v.1.15,2013-02-05 16:06:00,
2013-02-05 11:07:00,23.6,15.6,30.13,WSW,244,1.0,2.0,71,0.00,,,0.00,Wunderground v.1.15,2013-02-05 16:07:00,
2013-02-05 11:08:00,23.6,15.6,30.13,WSW,244,2.0,3.0,71,0.00,,,0.00,Wunderground v.1.15,2013-02-05 16:08:00,
2013-02-05 11:10:00,23.5,15.5,30.13,WSW,243,2.0,3.0,71,0.00,,,0.00,Wunderground v.1.15,2013-02-05 16:10:00,
2013-02-05 11:11:00,23.5,15.5,30.13,WSW,243,1.0,3.0,71,0.00,,,0.00,Wunderground v.1.15,2013-02-05 16:11:00,
2013-02-05 11:12:00,23.5,15.5,30.13,WSW,243,1.0,3.0,71,0.00,,,0.00,Wunderground v.1.15,2013-02-05 16:12:00,
2013-02-05 11:13:00,23.5,15.8,30.13,WSW,243,1.0,3.0,72,0.00,,,0.00,Wunderground v.1.15,2013-02-05 16:13:00,
2013-02-05 11:16:00,23.5,15.5,30.13,WSW,243,0.0,3.0,71,0.00,,,0.00,Wunderground v.1.15,2013-02-05 16:16:00,
2013-02-05 11:18:00,23.5,15.5,30.13,WSW,243,0.0,2.0,71,0.00,,,0.00,Wunderground v.1.15,2013-02-05 16:18:00,
2013-02-05 11:21:00,23.5,15.5,30.13,WSW,243,0.0,2.0,71,0.00,,,0.00,Wunderground v.1.15,2013-02-05 16:21:00,
2013-02-05 11:23:00,23.5,15.5,30.13,WSW,243,1.0,3.0,71,0.00,,,0.00,Wunderground v.1.15,2013-02-05 16:23:00,
2013-02-05 11:26:00,23.5,15.5,30.13,WSW,243,1.0,3.0,71,0.00,,,0.00,Wunderground v.1.15,2013-02-05 16:26:00,
2013-02-05 11:28:00,23.6,15.9,30.13,WSW,243,0.0,2.0,72,0.00,,,0.00,Wunderground v.1.15,2013-02-05 16:28:00,
2013-02-05 11:31:00,23.6,15.9,30.12,WSW,242,2.0,3.0,72,0.00,,,0.00,Wunderground v.1.15,2013-02-05 16:31:00,
2013-02-05 11:33:00,23.4,15.4,30.12,WSW,242,1.0,3.0,71,0.00,,,0.00,Wunderground v.1.15,2013-02-05 16:33:00,
2013-02-05 11:36:00,23.2,15.5,30.12,WSW,242,1.0,3.0,72,0.00,,,0.00,Wunderground v.1.15,2013-02-05 16:36:00,
2013-02-05 11:37:00,23.3,15.6,30.12,WSW,242,0.0,1.0,72,0.00,,,0.00,Wunderground v.1.15,2013-02-05 16:37:00,
2013-02-05 11:38:00,23.3,16.9,30.11,WSW,242,0.0,1.0,76,0.00,,,0.00,Wunderground v.1.15,2013-02-05 16:38:00,
2013-02-05 11:39:00,23.4,16.9,30.12,WSW,243,0.0,1.0,76,0.00,,,0.00,Wunderground v.1.15,2013-02-05 16:39:00,
2013-02-05 11:42:00,23.6,17.1,30.11,WSW,242,0.0,2.0,76,0.00,,,0.00,Wunderground v.1.15,2013-02-05 16:42:00,
2013-02-05 11:43:00,23.8,17.3,30.11,WSW,242,0.0,2.0,76,0.00,,,0.00,Wunderground v.1.15,2013-02-05 16:43:00,
2013-02-05 11:44:00,24.5,19.5,30.11,WSW,242,0.0,2.0,81,0.00,,,0.00,Wunderground v.1.15,2013-02-05 16:44:00,
2013-02-05 11:47:00,26.9,23.8,30.11,WSW,241,1.0,2.0,88,0.00,,,0.00,Wunderground v.1.15,2013-02-05 16:47:00,
2013-02-05 11:48:00,26.6,23.0,30.11,WSW,241,1.0,2.0,86,0.00,,,0.00,Wunderground v.1.15,2013-02-05 16:48:00,
2013-02-05 11:49:00,26.4,21.7,30.11,WSW,241,0.0,2.0,82,0.00,,,0.00,Wunderground v.1.15,2013-02-05 16:49:00,
2013-02-05 11:52:00,27.7,24.3,30.11,WSW,240,1.0,2.0,87,0.00,,,0.00,Wunderground v.1.15,2013-02-05 16:52:00,
2013-02-05 11:53:00,27.2,23.3,30.11,WSW,240,0.0,2.0,85,0.00,,,0.00,Wunderground v.1.15,2013-02-05 16:53:00,
2013-02-05 11:54:00,26.8,22.0,30.11,WSW,240,0.0,2.0,82,0.00,,,0.00,Wunderground v.1.15,2013-02-05 16:54:00,
2013-02-05 11:55:00,26.6,21.3,30.11,WSW,240,1.0,2.0,80,0.00,,,0.00,Wunderground v.1.15,2013-02-05 16:55:00,
2013-02-05 11:57:00,28.9,25.8,30.11,WSW,240,1.0,1.0,88,0.00,,,0.00,Wunderground v.1.15,2013-02-05 16:57:00,
2013-02-05 11:58:00,28.9,26.1,30.11,WSW,240,1.0,2.0,89,0.00,,,0.00,Wunderground v.1.15,2013-02-05 16:58:00,
2013-02-05 11:59:00,28.5,25.7,30.10,WSW,240,0.0,2.0,89,0.00,,,0.00,Wunderground v.1.15,2013-02-05 16:59:00,
2013-02-05 12:00:00,28.1,24.7,30.10,WSW,240,1.0,2.0,87,0.00,,,0.00,Wunderground v.1.15,2013-02-05 17:00:00,
2013-02-05 12:03:00,26.7,20.8,30.10,WSW,240,1.0,3.0,78,0.00,,,0.00,Wunderground v.1.15,2013-02-05 17:03:00,
2013-02-05 12:05:00,25.9,19.1,30.10,WSW,240,2.0,3.0,75,0.00,,,0.00,Wunderground v.1.15,2013-02-05 17:05:00,
2013-02-05 12:08:00,25.4,17.9,30.10,South,186,4.0,4.0,73,0.00,,,0.00,Wunderground v.1.15,2013-02-05 17:08:00,
2013-02-05 12:10:00,24.9,17.1,30.10,South,173,2.0,5.0,72,0.00,,,0.00,Wunderground v.1.15,2013-02-05 17:10:00,
2013-02-05 12:13:00,24.5,16.8,30.10,SSE,164,1.0,5.0,72,0.00,,,0.00,Wunderground v.1.15,2013-02-05 17:13:00,
2013-02-05 12:15:00,24.4,17.0,30.10,SSE,155,2.0,5.0,73,0.00,,,0.00,Wunderground v.1.15,2013-02-05 17:15:00,
2013-02-05 12:16:00,24.3,16.6,30.11,SSE,155,1.0,5.0,72,0.00,,,0.00,Wunderground v.1.15,2013-02-05 17:16:00,
2013-02-05 12:18:00,24.2,16.5,30.10,SSE,159,2.0,3.0,72,0.00,,,0.00,Wunderground v.1.15,2013-02-05 17:18:00,
2013-02-05 12:20:00,24.1,16.7,30.10,SSE,166,3.0,3.0,73,0.00,,,0.00,Wunderground v.1.15,2013-02-05 17:20:00,
2013-02-05 12:21:00,24.1,16.7,30.11,SSE,165,1.0,3.0,73,0.00,,,0.00,Wunderground v.1.15,2013-02-05 17:21:00,
2013-02-05 12:24:00,24.0,16.6,30.11,SSE,165,0.0,3.0,73,0.00,,,0.00,Wunderground v.1.15,2013-02-05 17:24:00,
2013-02-05 12:25:00,24.1,16.7,30.11,SSE,165,1.0,3.0,73,0.00,,,0.00,Wunderground v.1.15,2013-02-05 17:25:00,
2013-02-05 12:26:00,24.1,16.7,30.11,SSE,165,2.0,3.0,73,0.00,,,0.00,Wunderground v.1.15,2013-02-05 17:26:00,
2013-02-05 12:27:00,24.1,16.7,30.11,SSE,165,2.0,4.0,73,0.00,,,0.00,Wunderground v.1.15,2013-02-05 17:27:00,
2013-02-05 12:29:00,24.1,16.4,30.10,SSE,165,0.0,2.0,72,0.00,,,0.00,Wunderground v.1.15,2013-02-05 17:29:00,
2013-02-05 12:30:00,24.1,16.4,30.10,SSE,165,0.0,2.0,72,0.00,,,0.00,Wunderground v.1.15,2013-02-05 17:30:00,
2013-02-05 12:31:00,24.1,16.4,30.10,SSE,165,0.0,2.0,72,0.00,,,0.00,Wunderground v.1.15,2013-02-05 17:31:00,
2013-02-05 12:32:00,24.1,16.4,30.10,SSE,165,0.0,2.0,72,0.00,,,0.00,Wunderground v.1.15,2013-02-05 17:32:00,
2013-02-05 12:34:00,24.2,16.5,30.10,SSE,165,1.0,2.0,72,0.00,,,0.00,Wunderground v.1.15,2013-02-05 17:34:00,
2013-02-05 12:36:00,24.1,16.4,30.10,SSE,165,2.0,2.0,72,0.00,,,0.00,Wunderground v.1.15,2013-02-05 17:36:00,
2013-02-05 12:37:00,23.9,15.9,30.10,SSE,165,1.0,1.0,71,0.00,,,0.00,Wunderground v.1.15,2013-02-05 17:37:00,
2013-02-05 12:40:00,23.8,16.1,30.10,South,184,2.0,3.0,72,0.00,,,0.00,Wunderground v.1.15,2013-02-05 17:40:00,
2013-02-05 12:41:00,23.8,16.4,30.09,South,184,1.0,3.0,73,0.00,,,0.00,Wunderground v.1.15,2013-02-05 17:41:00,
2013-02-05 12:42:00,23.8,16.4,30.09,South,184,1.0,3.0,73,0.00,,,0.00,Wunderground v.1.15,2013-02-05 17:42:00,
2013-02-05 12:45:00,23.9,16.5,30.09,South,184,1.0,3.0,73,0.00,,,0.00,Wunderground v.1.15,2013-02-05 17:45:00,
2013-02-05 12:46:00,23.9,16.5,30.10,South,184,0.0,3.0,73,0.00,,,0.00,Wunderground v.1.15,2013-02-05 17:46:00,
2013-02-05 12:48:00,24.0,16.6,30.09,South,184,1.0,2.0,73,0.00,,,0.00,Wunderground v.1.15,2013-02-05 17:48:00,
2013-02-05 12:50:00,24.2,16.8,30.09,South,184,0.0,2.0,73,0.00,,,0.00,Wunderground v.1.15,2013-02-05 17:50:00,
2013-02-05 12:51:00,24.2,16.5,30.09,South,184,2.0,3.0,72,0.00,,,0.00,Wunderground v.1.15,2013-02-05 17:51:00,
2013-02-05 12:53:00,24.2,16.5,30.09,South,182,3.0,4.0,72,0.00,,,0.00,Wunderground v.1.15,2013-02-05 17:53:00,
2013-02-05 12:56:00,24.1,16.1,30.09,South,182,0.0,4.0,71,0.00,,,0.00,Wunderground v.1.15,2013-02-05 17:56:00,
2013-02-05 12:58:00,24.1,16.1,30.09,South,188,1.0,5.0,71,0.00,,,0.00,Wunderground v.1.15,2013-02-05 17:58:00,
2013-02-05 13:01:00,24.0,16.0,30.09,South,188,2.0,5.0,71,0.00,,,0.00,Wunderground v.1.15,2013-02-05 18:01:00,
2013-02-05 13:02:00,24.0,16.0,30.09,SSW,196,2.0,5.0,71,0.00,,,0.00,Wunderground v.1.15,2013-02-05 18:02:00,
2013-02-05 13:03:00,23.9,16.2,30.09,South,191,1.0,5.0,72,0.00,,,0.00,Wunderground v.1.15,2013-02-05 18:03:00,
2013-02-05 13:06:00,23.9,16.2,30.09,South,191,0.0,5.0,72,0.00,,,0.00,Wunderground v.1.15,2013-02-05 18:06:00,
2013-02-05 13:07:00,23.9,16.2,30.09,South,191,2.0,5.0,72,0.00,,,0.00,Wunderground v.1.15,2013-02-05 18:07:00,
2013-02-05 13:08:00,24.0,16.3,30.09,South,188,1.0,3.0,72,0.00,,,0.00,Wunderground v.1.15,2013-02-05 18:08:00,
2013-02-05 13:11:00,24.0,16.3,30.08,South,176,3.0,5.0,72,0.00,,,0.00,Wunderground v.1.15,2013-02-05 18:11:00,
2013-02-05 13:12:00,24.0,16.3,30.08,South,180,5.0,5.0,72,0.00,,,0.00,Wunderground v.1.15,2013-02-05 18:12:00,
2013-02-05 13:13:00,24.1,16.4,30.08,South,180,2.0,5.0,72,0.00,,,0.00,Wunderground v.1.15,2013-02-05 18:13:00,
2013-02-05 13:17:00,24.1,16.4,30.08,South,186,3.0,3.0,72,0.00,,,0.00,Wunderground v.1.15,2013-02-05 18:17:00,
2013-02-05 13:18:00,24.1,16.4,30.08,SSE,157,3.0,5.0,72,0.00,,,0.00,Wunderground v.1.15,2013-02-05 18:18:00,
2013-02-05 13:22:00,24.1,16.4,30.08,SSE,161,2.0,5.0,72,0.00,,,0.00,Wunderground v.1.15,2013-02-05 18:22:00,
2013-02-05 13:23:00,24.1,16.4,30.08,SSE,161,2.0,5.0,72,0.00,,,0.00,Wunderground v.1.15,2013-02-05 18:23:00,
2013-02-05 13:24:00,24.2,16.5,30.08,SSE,162,3.0,5.0,72,0.00,,,0.00,Wunderground v.1.15,2013-02-05 18:24:00,
2013-02-05 13:28:00,24.2,16.5,30.08,SSE,155,1.0,3.0,72,0.00,,,0.00,Wunderground v.1.15,2013-02-05 18:28:00,
2013-02-05 13:29:00,24.3,16.6,30.08,SSE,159,3.0,5.0,72,0.00,,,0.00,Wunderground v.1.15,2013-02-05 18:29:00,
2013-02-05 13:33:00,24.3,16.6,30.08,SSE,168,1.0,5.0,72,0.00,,,0.00,Wunderground v.1.15,2013-02-05 18:33:00,
2013-02-05 13:34:00,24.3,16.6,30.08,SSE,168,0.0,5.0,72,0.00,,,0.00,Wunderground v.1.15,2013-02-05 18:34:00,
2013-02-05 13:35:00,24.3,16.6,30.08,SSE,168,0.0,5.0,72,0.00,,,0.00,Wunderground v.1.15,2013-02-05 18:35:00,
2013-02-05 13:38:00,24.3,16.6,30.08,SSE,163,3.0,4.0,72,0.00,,,0.00,Wunderground v.1.15,2013-02-05 18:38:00,
2013-02-05 13:40:00,24.3,16.9,30.08,South,188,4.0,4.0,73,0.00,,,0.00,Wunderground v.1.15,2013-02-05 18:40:00,
2013-02-05 13:43:00,24.2,16.8,30.09,South,190,1.0,6.0,73,0.00,,,0.00,Wunderground v.1.15,2013-02-05 18:43:00,
2013-02-05 13:45:00,24.2,16.8,30.09,South,190,2.0,6.0,73,0.00,,,0.00,Wunderground v.1.15,2013-02-05 18:45:00,
2013-02-05 13:46:00,24.2,16.8,30.09,South,190,2.0,6.0,73,0.00,,,0.00,Wunderground v.1.15,2013-02-05 18:46:00,
2013-02-05 13:48:00,24.3,17.2,30.09,South,177,1.0,3.0,74,0.00,,,0.00,Wunderground v.1.15,2013-02-05 18:48:00,
2013-02-05 13:50:00,24.3,17.2,30.09,South,177,2.0,3.0,74,0.00,,,0.00,Wunderground v.1.15,2013-02-05 18:50:00,
2013-02-05 13:51:00,24.3,16.9,30.09,South,177,3.0,3.0,73,0.00,,,0.00,Wunderground v.1.15,2013-02-05 18:51:00,
2013-02-05 13:53:00,24.2,16.8,30.09,South,176,1.0,3.0,73,0.00,,,0.00,Wunderground v.1.15,2013-02-05 18:53:00,
2013-02-05 13:56:00,24.2,17.1,30.09,South,175,2.0,5.0,74,0.00,,,0.00,Wunderground v.1.15,2013-02-05 18:56:00,
2013-02-05 13:58:00,24.2,16.8,30.09,South,180,2.0,3.0,73,0.00,,,0.00,Wunderground v.1.15,2013-02-05 18:58:00,
2013-02-05 14:01:00,24.2,17.1,30.09,South,180,1.0,3.0,74,0.00,,,0.00,Wunderground v.1.15,2013-02-05 19:01:00,
2013-02-05 14:02:00,24.2,17.1,30.09,South,180,1.0,3.0,74,0.00,,,0.00,Wunderground v.1.15,2013-02-05 19:02:00,
2013-02-05 14:03:00,24.3,17.2,30.09,South,180,2.0,3.0,74,0.00,,,0.00,Wunderground v.1.15,2013-02-05 19:03:00,
2013-02-05 14:06:00,24.5,17.4,30.09,South,180,1.0,3.0,74,0.00,,,0.00,Wunderground v.1.15,2013-02-05 19:06:00,
2013-02-05 14:07:00,24.5,17.4,30.09,South,180,2.0,2.0,74,0.00,,,0.00,Wunderground v.1.15,2013-02-05 19:07:00,
2013-02-05 14:09:00,24.7,18.5,30.08,South,173,3.0,4.0,77,0.00,,,0.00,Wunderground v.1.15,2013-02-05 19:09:00,
2013-02-05 14:11:00,24.6,17.5,30.08,South,180,4.0,4.0,74,0.00,,,0.00,Wunderground v.1.15,2013-02-05 19:11:00,
2013-02-05 14:12:00,24.5,17.4,30.08,South,180,2.0,4.0,74,0.00,,,0.00,Wunderground v.1.15,2013-02-05 19:12:00,
2013-02-05 14:14:00,24.5,17.7,30.08,South,181,2.0,4.0,75,0.00,,,0.00,Wunderground v.1.15,2013-02-05 19:14:00,
2013-02-05 14:17:00,24.7,18.2,30.08,SSE,163,3.0,3.0,76,0.00,,,0.00,Wunderground v.1.15,2013-02-05 19:17:00,
2013-02-05 14:19:00,24.7,18.2,30.08,SW,219,3.0,6.0,76,0.00,,,0.00,Wunderground v.1.15,2013-02-05 19:19:00,
2013-02-05 14:23:00,24.8,19.2,30.08,SW,219,1.0,6.0,79,0.00,,,0.00,Wunderground v.1.15,2013-02-05 19:23:00,
2013-02-05 14:24:00,25.0,19.4,30.08,South,187,2.0,6.0,79,0.00,,,0.00,Wunderground v.1.15,2013-02-05 19:24:00,
2013-02-05 14:28:00,25.4,19.8,30.08,South,177,3.0,3.0,79,0.00,,,0.00,Wunderground v.1.15,2013-02-05 19:28:00,
2013-02-05 14:29:00,25.4,19.2,30.08,South,177,0.0,3.0,77,0.00,,,0.00,Wunderground v.1.15,2013-02-05 19:29:00,
2013-02-05 14:33:00,25.0,17.9,30.08,South,176,3.0,5.0,74,0.00,,,0.00,Wunderground v.1.15,2013-02-05 19:33:00,
2013-02-05 14:34:00,24.8,17.7,30.08,South,176,2.0,5.0,74,0.00,,,0.00,Wunderground v.1.15,2013-02-05 19:34:00,
2013-02-05 14:38:00,24.6,18.1,30.08,South,175,1.0,3.0,76,0.00,,,0.00,Wunderground v.1.15,2013-02-05 19:38:00,
2013-02-05 14:39:00,24.6,17.8,30.08,South,188,2.0,3.0,75,0.00,,,0.00,Wunderground v.1.15,2013-02-05 19:39:00,
2013-02-05 14:40:00,24.6,17.8,30.08,South,187,3.0,3.0,75,0.00,,,0.00,Wunderground v.1.15,2013-02-05 19:40:00,
2013-02-05 14:43:00,24.6,17.8,30.08,South,172,2.0,4.0,75,0.00,,,0.00,Wunderground v.1.15,2013-02-05 19:43:00,
2013-02-05 14:44:00,24.5,17.7,30.08,SSE,157,3.0,4.0,75,0.00,,,0.00,Wunderground v.1.15,2013-02-05 19:44:00,
2013-02-05 14:45:00,24.5,17.7,30.08,SSE,157,2.0,4.0,75,0.00,,,0.00,Wunderground v.1.15,2013-02-05 19:45:00,
2013-02-05 14:49:00,24.5,17.7,30.08,ESE,121,4.0,4.0,75,0.00,,,0.00,Wunderground v.1.15,2013-02-05 19:49:00,
2013-02-05 14:50:00,24.5,17.7,30.08,ESE,121,1.0,4.0,75,0.00,,,0.00,Wunderground v.1.15,2013-02-05 19:50:00,
2013-02-05 14:54:00,24.5,17.7,30.07,SSE,167,3.0,5.0,75,0.00,,,0.00,Wunderground v.1.15,2013-02-05 19:54:00,
2013-02-05 14:55:00,24.5,17.7,30.07,South,169,4.0,6.0,75,0.00,,,0.00,Wunderground v.1.15,2013-02-05 19:55:00,
2013-02-05 14:59:00,24.8,19.2,30.07,South,178,1.0,2.0,79,0.00,,,0.00,Wunderground v.1.15,2013-02-05 19:59:00,
2013-02-05 15:00:00,24.9,19.3,30.07,South,178,1.0,2.0,79,0.00,,,0.00,Wunderground v.1.15,2013-02-05 20:00:00,
2013-02-05 15:04:00,25.0,18.5,30.07,South,178,2.0,2.0,76,0.00,,,0.00,Wunderground v.1.15,2013-02-05 20:04:00,
2013-02-05 15:05:00,25.0,18.5,30.07,South,178,2.0,3.0,76,0.00,,,0.00,Wunderground v.1.15,2013-02-05 20:05:00,
2013-02-05 15:06:00,25.0,18.2,30.07,South,178,1.0,3.0,75,0.00,,,0.00,Wunderground v.1.15,2013-02-05 20:06:00,
2013-02-05 15:09:00,24.9,18.1,30.07,SSE,157,3.0,3.0,75,0.00,,,0.00,Wunderground v.1.15,2013-02-05 20:09:00,
2013-02-05 15:10:00,24.9,18.1,30.07,South,182,2.0,3.0,75,0.00,,,0.00,Wunderground v.1.15,2013-02-05 20:10:00,
2013-02-05 15:11:00,24.9,18.1,30.06,SE,146,2.0,4.0,75,0.00,,,0.00,Wunderground v.1.15,2013-02-05 20:11:00,
2013-02-05 15:14:00,24.8,18.0,30.06,SSE,147,1.0,4.0,75,0.00,,,0.00,Wunderground v.1.15,2013-02-05 20:14:00,
2013-02-05 15:15:00,24.8,17.7,30.06,SSE,147,0.0,4.0,74,0.00,,,0.00,Wunderground v.1.15,2013-02-05 20:15:00,
2013-02-05 15:16:00,24.8,18.0,30.06,SSE,147,2.0,4.0,75,0.00,,,0.00,Wunderground v.1.15,2013-02-05 20:16:00,
2013-02-05 15:17:00,24.8,18.0,30.06,SSE,148,3.0,4.0,75,0.00,,,0.00,Wunderground v.1.15,2013-02-05 20:17:00,
2013-02-05 15:20:00,24.8,18.0,30.06,South,173,2.0,4.0,75,0.00,,,0.00,Wunderground v.1.15,2013-02-05 20:20:00,
2013-02-05 15:21:00,24.8,18.0,30.06,South,173,2.0,4.0,75,0.00,,,0.00,Wunderground v.1.15,2013-02-05 20:21:00,
2013-02-05 15:22:00,24.8,18.0,30.06,SSE,166,0.0,4.0,75,0.00,,,0.00,Wunderground v.1.15,2013-02-05 20:22:00,
2013-02-05 15:25:00,24.8,18.0,30.06,South,173,1.0,4.0,75,0.00,,,0.00,Wunderground v.1.15,2013-02-05 20:25:00,
2013-02-05 15:26:00,24.9,18.1,30.06,South,173,1.0,4.0,75,0.00,,,0.00,Wunderground v.1.15,2013-02-05 20:26:00,
2013-02-05 15:27:00,24.9,18.1,30.06,South,173,0.0,2.0,75,0.00,,,0.00,Wunderground v.1.15,2013-02-05 20:27:00,
2013-02-05 15:30:00,25.0,18.2,30.06,South,173,1.0,2.0,75,0.00,,,0.00,Wunderground v.1.15,2013-02-05 20:30:00,
2013-02-05 15:31:00,25.0,18.2,30.06,SSE,168,2.0,2.0,75,0.00,,,0.00,Wunderground v.1.15,2013-02-05 20:31:00,
2013-02-05 15:32:00,25.0,17.9,30.06,South,171,2.0,3.0,74,0.00,,,0.00,Wunderground v.1.15,2013-02-05 20:32:00,
2013-02-05 15:36:00,24.9,17.8,30.06,South,175,1.0,6.0,74,0.00,,,0.00,Wunderground v.1.15,2013-02-05 20:36:00,
2013-02-05 15:37:00,24.9,17.8,30.06,South,175,2.0,2.0,74,0.00,,,0.00,Wunderground v.1.15,2013-02-05 20:37:00,
2013-02-05 15:41:00,24.8,18.0,30.06,South,171,2.0,3.0,75,0.00,,,0.00,Wunderground v.1.15,2013-02-05 20:41:00,
2013-02-05 15:43:00,24.8,18.0,30.06,SSE,153,1.0,5.0,75,0.00,,,0.00,Wunderground v.1.15,2013-02-05 20:43:00,
2013-02-05 15:46:00,24.8,18.0,30.05,South,176,2.0,5.0,75,0.00,,,0.00,Wunderground v.1.15,2013-02-05 20:46:00,
2013-02-05 15:47:00,24.8,18.0,30.05,South,176,2.0,5.0,75,0.00,,,0.00,Wunderground v.1.15,2013-02-05 20:47:00,
2013-02-05 15:48:00,24.8,18.0,30.05,South,176,1.0,2.0,75,0.00,,,0.00,Wunderground v.1.15,2013-02-05 20:48:00,
2013-02-05 15:52:00,24.8,17.7,30.05,South,176,1.0,3.0,74,0.00,,,0.00,Wunderground v.1.15,2013-02-05 20:52:00,
2013-02-05 15:53:00,24.8,17.7,30.05,South,176,1.0,3.0,74,0.00,,,0.00,Wunderground v.1.15,2013-02-05 20:53:00,
2013-02-05 15:57:00,24.9,17.8,30.05,SSE,165,3.0,3.0,74,0.00,,,0.00,Wunderground v.1.15,2013-02-05 20:57:00,
2013-02-05 15:58:00,24.8,17.7,30.05,South,180,3.0,6.0,74,0.00,,,0.00,Wunderground v.1.15,2013-02-05 20:58:00,
2013-02-05 15:59:00,24.8,17.7,30.05,South,180,2.0,6.0,74,0.00,,,0.00,Wunderground v.1.15,2013-02-05 20:59:00,
2013-02-05 16:02:00,24.7,17.9,30.05,South,171,1.0,6.0,75,0.00,,,0.00,Wunderground v.1.15,2013-02-05 21:02:00,
2013-02-05 16:03:00,24.7,17.9,30.05,South,171,3.0,6.0,75,0.00,,,0.00,Wunderground v.1.15,2013-02-05 21:03:00,
2013-02-05 16:04:00,24.7,17.9,30.05,South,171,1.0,6.0,75,0.00,,,0.00,Wunderground v.1.15,2013-02-05 21:04:00,
2013-02-05 16:08:00,24.7,17.9,30.05,South,171,3.0,3.0,75,0.00,,,0.00,Wunderground v.1.15,2013-02-05 21:08:00,
2013-02-05 16:09:00,24.7,17.9,30.05,South,171,2.0,3.0,75,0.00,,,0.00,Wunderground v.1.15,2013-02-05 21:09:00,
2013-02-05 16:13:00,25.4,20.4,30.05,South,171,1.0,3.0,81,0.00,,,0.00,Wunderground v.1.15,2013-02-05 21:13:00,
2013-02-05 16:14:00,25.4,19.8,30.05,South,171,1.0,3.0,79,0.00,,,0.00,Wunderground v.1.15,2013-02-05 21:14:00,
2013-02-05 16:18:00,25.5,19.9,30.05,South,175,2.0,2.0,79,0.00,,,0.00,Wunderground v.1.15,2013-02-05 21:18:00,
2013-02-05 16:19:00,25.6,20.6,30.05,South,175,2.0,2.0,81,0.00,,,0.00,Wunderground v.1.15,2013-02-05 21:19:00,
2013-02-05 16:20:00,25.6,20.0,30.05,SSE,162,1.0,3.0,79,0.00,,,0.00,Wunderground v.1.15,2013-02-05 21:20:00,
2013-02-05 16:23:00,26.5,22.6,30.05,SSE,162,0.0,3.0,85,0.00,,,0.00,Wunderground v.1.15,2013-02-05 21:23:00,
2013-02-05 16:24:00,26.9,23.0,30.05,SSE,162,0.0,3.0,85,0.00,,,0.00,Wunderground v.1.15,2013-02-05 21:24:00,
2013-02-05 16:26:00,26.9,22.7,30.06,SSE,163,2.0,4.0,84,0.00,,,0.00,Wunderground v.1.15,2013-02-05 21:26:00,
2013-02-05 16:28:00,26.3,20.4,30.05,SSE,158,2.0,4.0,78,0.00,,,0.00,Wunderground v.1.15,2013-02-05 21:28:00,
2013-02-05 16:29:00,26.0,19.8,30.05,SE,133,1.0,4.0,77,0.00,,,0.00,Wunderground v.1.15,2013-02-05 21:29:00,
2013-02-05 16:32:00,25.6,18.8,30.05,South,181,1.0,4.0,75,0.00,,,0.00,Wunderground v.1.15,2013-02-05 21:32:00,
2013-02-05 16:33:00,25.6,20.0,30.06,South,181,2.0,4.0,79,0.00,,,0.00,Wunderground v.1.15,2013-02-05 21:33:00,
2013-02-05 16:34:00,25.4,19.5,30.06,South,181,0.0,4.0,78,0.00,,,0.00,Wunderground v.1.15,2013-02-05 21:34:00,
2013-02-05 16:37:00,26.4,22.5,30.06,South,181,2.0,2.0,85,0.00,,,0.00,Wunderground v.1.15,2013-02-05 21:37:00,
2013-02-05 16:38:00,26.2,21.5,30.06,South,179,1.0,3.0,82,0.00,,,0.00,Wunderground v.1.15,2013-02-05 21:38:00,
2013-02-05 16:39:00,26.0,20.7,30.06,South,179,2.0,3.0,80,0.00,,,0.00,Wunderground v.1.15,2013-02-05 21:39:00,
2013-02-05 16:42:00,25.6,19.4,30.06,South,179,0.0,3.0,77,0.00,,,0.00,Wunderground v.1.15,2013-02-05 21:42:00,
2013-02-05 16:43:00,25.6,19.4,30.06,South,179,0.0,3.0,77,0.00,,,0.00,Wunderground v.1.15,2013-02-05 21:43:00,
2013-02-05 16:45:00,25.5,19.6,30.06,South,179,0.0,3.0,78,0.00,,,0.00,Wunderground v.1.15,2013-02-05 21:45:00,
2013-02-05 16:47:00,25.5,19.3,30.07,South,179,1.0,1.0,77,0.00,,,0.00,Wunderground v.1.15,2013-02-05 21:47:00,
2013-02-05 16:49:00,26.2,21.7,30.06,South,179,0.0,2.0,83,0.00,,,0.00,Wunderground v.1.15,2013-02-05 21:49:00,
2013-02-05 16:50:00,26.6,23.0,30.06,South,179,0.0,2.0,86,0.00,,,0.00,Wunderground v.1.15,2013-02-05 21:50:00,
2013-02-05 16:52:00,26.7,22.8,30.06,South,171,4.0,4.0,85,0.00,,,0.00,Wunderground v.1.15,2013-02-05 21:52:00,
2013-02-05 16:54:00,26.1,20.2,30.07,South,170,1.0,5.0,78,0.00,,,0.00,Wunderground v.1.15,2013-02-05 21:54:00,
2013-02-05 16:55:00,25.8,19.6,30.07,South,170,2.0,5.0,77,0.00,,,0.00,Wunderground v.1.15,2013-02-05 21:55:00,
2013-02-05 16:57:00,25.4,18.9,30.06,South,170,1.0,2.0,76,0.00,,,0.00,Wunderground v.1.15,2013-02-05 21:57:00,
2013-02-05 17:00:00,25.3,19.1,30.06,South,170,2.0,3.0,77,0.00,,,0.00,Wunderground v.1.15,2013-02-05 22:00:00,
2013-02-05 17:03:00,25.4,19.8,30.06,South,170,1.0,3.0,79,0.00,,,0.00,Wunderground v.1.15,2013-02-05 22:03:00,
2013-02-05 17:05:00,25.3,19.4,30.06,South,169,0.0,4.0,78,0.00,,,0.00,Wunderground v.1.15,2013-02-05 22:05:00,
2013-02-05 17:06:00,25.2,19.0,30.06,South,169,2.0,4.0,77,0.00,,,0.00,Wunderground v.1.15,2013-02-05 22:06:00,
2013-02-05 17:08:00,25.1,18.6,30.06,South,169,0.0,1.0,76,0.00,,,0.00,Wunderground v.1.15,2013-02-05 22:08:00,
2013-02-05 17:11:00,25.0,18.5,30.06,South,169,0.0,1.0,76,0.00,,,0.00,Wunderground v.1.15,2013-02-05 22:11:00,
2013-02-05 17:12:00,25.0,18.5,30.06,South,169,3.0,3.0,76,0.00,,,0.00,Wunderground v.1.15,2013-02-05 22:12:00,
2013-02-05 17:13:00,24.9,18.1,30.06,South,170,2.0,3.0,75,0.00,,,0.00,Wunderground v.1.15,2013-02-05 22:13:00,
2013-02-05 17:16:00,24.8,18.0,30.06,South,170,2.0,3.0,75,0.00,,,0.00,Wunderground v.1.15,2013-02-05 22:16:00,
2013-02-05 17:18:00,24.7,17.9,30.06,South,170,0.0,1.0,75,0.00,,,0.00,Wunderground v.1.15,2013-02-05 22:18:00,
2013-02-05 17:19:00,24.7,18.2,30.06,South,170,1.0,1.0,76,0.00,,,0.00,Wunderground v.1.15,2013-02-05 22:19:00,
2013-02-05 17:21:00,24.7,17.9,30.06,South,170,0.0,3.0,75,0.00,,,0.00,Wunderground v.1.15,2013-02-05 22:21:00,
2013-02-05 17:23:00,24.6,18.1,30.06,South,170,1.0,3.0,76,0.00,,,0.00,Wunderground v.1.15,2013-02-05 22:23:00,
2013-02-05 17:24:00,24.6,18.1,30.06,South,170,0.0,3.0,76,0.00,,,0.00,Wunderground v.1.15,2013-02-05 22:24:00,
2013-02-05 17:26:00,24.6,18.1,30.06,South,170,1.0,3.0,76,0.00,,,0.00,Wunderground v.1.15,2013-02-05 22:26:00,
2013-02-05 17:29:00,24.6,18.1,30.05,South,171,2.0,3.0,76,0.00,,,0.00,Wunderground v.1.15,2013-02-05 22:29:00,
2013-02-05 17:31:00,24.6,18.1,30.05,SSE,156,1.0,3.0,76,0.00,,,0.00,Wunderground v.1.15,2013-02-05 22:31:00,
2013-02-05 17:32:00,24.6,18.1,30.05,SSE,156,1.0,3.0,76,0.00,,,0.00,Wunderground v.1.15,2013-02-05 22:32:00,
2013-02-05 17:35:00,24.6,18.1,30.05,SSE,156,0.0,3.0,76,0.00,,,0.00,Wunderground v.1.15,2013-02-05 22:35:00,
2013-02-05 17:36:00,24.6,18.1,30.05,SSE,159,3.0,4.0,76,0.00,,,0.00,Wunderground v.1.15,2013-02-05 22:36:00,
2013-02-05 17:37:00,24.6,18.1,30.05,SSE,159,2.0,2.0,76,0.00,,,0.00,Wunderground v.1.15,2013-02-05 22:37:00,
2013-02-05 17:40:00,24.5,17.7,30.05,SSE,157,3.0,4.0,75,0.00,,,0.00,Wunderground v.1.15,2013-02-05 22:40:00,
2013-02-05 17:41:00,24.5,17.7,30.05,SSE,151,0.0,4.0,75,0.00,,,0.00,Wunderground v.1.15,2013-02-05 22:41:00,
2013-02-05 17:42:00,24.4,17.6,30.05,SSE,151,1.0,4.0,75,0.00,,,0.00,Wunderground v.1.15,2013-02-05 22:42:00,
2013-02-05 17:45:00,24.4,17.6,30.05,SSE,152,3.0,4.0,75,0.00,,,0.00,Wunderground v.1.15,2013-02-05 22:45:00,
2013-02-05 17:46:00,24.4,17.6,30.05,SSE,168,4.0,4.0,75,0.00,,,0.00,Wunderground v.1.15,2013-02-05 22:46:00,
2013-02-05 17:47:00,24.4,17.6,30.05,SSE,168,1.0,2.0,75,0.00,,,0.00,Wunderground v.1.15,2013-02-05 22:47:00,
2013-02-05 17:50:00,24.4,17.6,30.06,SSE,168,1.0,2.0,75,0.00,,,0.00,Wunderground v.1.15,2013-02-05 22:50:00,
2013-02-05 17:51:00,24.4,17.6,30.06,SSE,168,1.0,2.0,75,0.00,,,0.00,Wunderground v.1.15,2013-02-05 22:51:00,
2013-02-05 17:52:00,24.4,17.6,30.06,SSE,168,1.0,2.0,75,0.00,,,0.00,Wunderground v.1.15,2013-02-05 22:52:00,
2013-02-05 17:55:00,24.4,17.6,30.06,South,171,2.0,6.0,75,0.00,,,0.00,Wunderground v.1.15,2013-02-05 22:55:00,
2013-02-05 17:56:00,24.4,17.6,30.06,South,180,2.0,6.0,75,0.00,,,0.00,Wunderground v.1.15,2013-02-05 22:56:00,
2013-02-05 17:58:00,24.3,17.5,30.06,SSE,161,4.0,4.0,75,0.00,,,0.00,Wunderground v.1.15,2013-02-05 22:58:00,
2013-02-05 18:01:00,24.3,17.5,30.06,SSE,160,0.0,4.0,75,0.00,,,0.00,Wunderground v.1.15,2013-02-05 23:01:00,
2013-02-05 18:02:00,24.3,17.5,30.06,SSE,161,1.0,4.0,75,0.00,,,0.00,Wunderground v.1.15,2013-02-05 23:02:00,
2013-02-05 18:03:00,24.3,17.5,30.06,SSE,161,2.0,4.0,75,0.00,,,0.00,Wunderground v.1.15,2013-02-05 23:03:00,
2013-02-05 18:06:00,24.3,17.5,30.07,SSE,161,1.0,4.0,75,0.00,,,0.00,Wunderground v.1.15,2013-02-05 23:06:00,
2013-02-05 18:07:00,24.3,17.5,30.07,SSE,161,2.0,2.0,75,0.00,,,0.00,Wunderground v.1.15,2013-02-05 23:07:00,
2013-02-05 18:08:00,24.3,17.5,30.06,SSE,161,2.0,3.0,75,0.00,,,0.00,Wunderground v.1.15,2013-02-05 23:08:00,
2013-02-05 18:09:00,24.3,17.5,30.07,SSE,160,0.0,3.0,75,0.00,,,0.00,Wunderground v.1.15,2013-02-05 23:09:00,
2013-02-05 18:11:00,24.3,17.5,30.07,SSE,160,0.0,3.0,75,0.00,,,0.00,Wunderground v.1.15,2013-02-05 23:11:00,
2013-02-05 18:13:00,24.3,17.5,30.07,SSE,161,1.0,3.0,75,0.00,,,0.00,Wunderground v.1.15,2013-02-05 23:13:00,
2013-02-05 18:15:00,24.3,17.5,30.06,SSE,161,1.0,3.0,75,0.00,,,0.00,Wunderground v.1.15,2013-02-05 23:15:00,
2013-02-05 18:16:00,24.3,17.5,30.06,SSE,161,0.0,3.0,75,0.00,,,0.00,Wunderground v.1.15,2013-02-05 23:16:00,
2013-02-05 18:18:00,24.3,17.5,30.06,SSE,161,0.0,2.0,75,0.00,,,0.00,Wunderground v.1.15,2013-02-05 23:18:00,
2013-02-05 18:19:00,24.3,17.5,30.06,SSE,161,1.0,2.0,75,0.00,,,0.00,Wunderground v.1.15,2013-02-05 23:19:00,
2013-02-05 18:21:00,24.3,17.5,30.06,SSE,161,0.0,2.0,75,0.00,,,0.00,Wunderground v.1.15,2013-02-05 23:21:00,
2013-02-05 18:23:00,24.3,17.8,30.06,SSE,161,2.0,2.0,76,0.00,,,0.00,Wunderground v.1.15,2013-02-05 23:23:00,
2013-02-05 18:24:00,24.3,17.8,30.06,SSE,160,1.0,2.0,76,0.00,,,0.00,Wunderground v.1.15,2013-02-05 23:24:00,
2013-02-05 18:26:00,24.4,17.6,30.07,SSE,161,0.0,3.0,75,0.00,,,0.00,Wunderground v.1.15,2013-02-05 23:26:00,
2013-02-05 18:27:00,24.4,17.6,30.07,SSE,161,1.0,1.0,75,0.00,,,0.00,Wunderground v.1.15,2013-02-05 23:27:00,
2013-02-05 18:28:00,24.4,17.6,30.07,SSE,161,0.0,1.0,75,0.00,,,0.00,Wunderground v.1.15,2013-02-05 23:28:00,
2013-02-05 18:29:00,24.4,17.6,30.07,SSE,161,1.0,1.0,75,0.00,,,0.00,Wunderground v.1.15,2013-02-05 23:29:00,
2013-02-05 18:31:00,24.4,17.9,30.07,SSE,161,0.0,1.0,76,0.00,,,0.00,Wunderground v.1.15,2013-02-05 23:31:00,
2013-02-05 18:33:00,24.4,17.9,30.07,SSE,160,0.0,2.0,76,0.00,,,0.00,Wunderground v.1.15,2013-02-05 23:33:00,
2013-02-05 18:35:00,24.4,18.2,30.07,SSE,160,1.0,2.0,77,0.00,,,0.00,Wunderground v.1.15,2013-02-05 23:35:00,
2013-02-05 18:37:00,24.4,18.2,30.07,SSE,161,2.0,3.0,77,0.00,,,0.00,Wunderground v.1.15,2013-02-05 23:37:00,
2013-02-05 18:38:00,24.3,18.1,30.07,SSE,161,2.0,3.0,77,0.00,,,0.00,Wunderground v.1.15,2013-02-05 23:38:00,
2013-02-05 18:39:00,24.3,18.1,30.07,SSE,161,1.0,3.0,77,0.00,,,0.00,Wunderground v.1.15,2013-02-05 23:39:00,
2013-02-05 18:40:00,24.3,18.4,30.07,SSE,161,3.0,4.0,78,0.00,,,0.00,Wunderground v.1.15,2013-02-05 23:40:00,
2013-02-05 18:42:00,24.2,18.3,30.07,SSE,155,3.0,4.0,78,0.00,,,0.00,Wunderground v.1.15,2013-02-05 23:42:00,
2013-02-05 18:43:00,24.2,18.3,30.07,SSE,159,4.0,4.0,78,0.00,,,0.00,Wunderground v.1.15,2013-02-05 23:43:00,
2013-02-05 18:44:00,24.1,18.5,30.07,SSE,159,3.0,4.0,79,0.00,,,0.00,Wunderground v.1.15,2013-02-05 23:44:00,
2013-02-05 18:45:00,24.1,18.5,30.07,South,174,3.0,4.0,79,0.00,,,0.00,Wunderground v.1.15,2013-02-05 23:45:00,
2013-02-05 18:47:00,24.0,18.7,30.07,South,175,3.0,3.0,80,0.00,,,0.00,Wunderground v.1.15,2013-02-05 23:47:00,
2013-02-05 18:49:00,23.9,18.6,30.07,SSE,158,1.0,4.0,80,0.00,,,0.00,Wunderground v.1.15,2013-02-05 23:49:00,
2013-02-05 18:50:00,24.1,19.4,30.07,South,184,1.0,5.0,82,0.00,,,0.00,Wunderground v.1.15,2013-02-05 23:50:00,
2013-02-05 18:51:00,24.1,19.7,30.07,South,182,2.0,5.0,83,0.00,,,0.00,Wunderground v.1.15,2013-02-05 23:51:00,
2013-02-05 18:52:00,24.0,19.3,30.07,South,181,1.0,5.0,82,0.00,,,0.00,Wunderground v.1.15,2013-02-05 23:52:00,
2013-02-05 18:54:00,24.2,20.1,30.07,South,181,1.0,5.0,84,0.00,,,0.00,Wunderground v.1.15,2013-02-05 23:54:00,
2013-02-05 18:55:00,24.3,20.4,30.07,South,173,4.0,5.0,85,0.00,,,0.00,Wunderground v.1.15,2013-02-05 23:55:00,
2013-02-05 18:56:00,24.2,20.3,30.07,South,171,4.0,5.0,85,0.00,,,0.00,Wunderground v.1.15,2013-02-05 23:56:00,
2013-02-05 18:57:00,24.0,19.6,30.06,South,180,1.0,2.0,83,0.00,,,0.00,Wunderground v.1.15,2013-02-05 23:57:00,
2013-02-05 18:59:00,23.8,19.1,30.06,South,186,2.0,3.0,82,0.00,,,0.00,Wunderground v.1.15,2013-02-05 23:59:00,
2013-02-05 19:00:00,23.8,19.4,30.06,South,186,1.0,3.0,83,0.00,,,0.00,Wunderground v.1.15,2013-02-06 00:00:00,
2013-02-05 19:01:00,23.7,19.3,30.06,South,186,1.0,3.0,83,0.00,,,0.00,Wunderground v.1.15,2013-02-06 00:01:00,
2013-02-05 19:02:00,23.6,19.2,30.06,South,186,0.0,3.0,83,0.00,,,0.00,Wunderground v.1.15,2013-02-06 00:02:00,
2013-02-05 19:04:00,24.1,20.2,30.06,South,186,2.0,3.0,85,0.00,,,0.00,Wunderground v.1.15,2013-02-06 00:04:00,
2013-02-05 19:06:00,24.0,20.4,30.06,South,172,3.0,6.0,86,0.00,,,0.00,Wunderground v.1.15,2013-02-06 00:06:00,
2013-02-05 19:08:00,23.8,19.9,30.06,South,172,2.0,2.0,85,0.00,,,0.00,Wunderground v.1.15,2013-02-06 00:08:00,
2013-02-05 19:09:00,23.7,19.9,30.06,South,172,1.0,2.0,85,0.00,,,0.00,Wunderground v.1.15,2013-02-06 00:09:00,
2013-02-05 19:11:00,24.4,20.8,30.06,South,172,1.0,2.0,86,0.00,,,0.00,Wunderground v.1.15,2013-02-06 00:11:00,
2013-02-05 19:12:00,24.5,21.5,30.06,South,172,3.0,3.0,88,0.00,,,0.00,Wunderground v.1.15,2013-02-06 00:12:00,
2013-02-05 19:13:00,24.3,21.3,30.06,South,172,1.0,3.0,88,0.00,,,0.00,Wunderground v.1.15,2013-02-06 00:13:00,
2013-02-05 19:15:00,24.0,20.7,30.06,South,172,1.0,3.0,87,0.00,,,0.00,Wunderground v.1.15,2013-02-06 00:15:00,
2013-02-05 19:16:00,23.8,20.2,30.06,SSE,168,1.0,4.0,86,0.00,,,0.00,Wunderground v.1.15,2013-02-06 00:16:00,
2013-02-05 19:17:00,23.6,20.0,30.06,SSE,168,2.0,2.0,86,0.00,,,0.00,Wunderground v.1.15,2013-02-06 00:17:00,
2013-02-05 19:19:00,23.4,19.8,30.06,SSE,168,1.0,3.0,86,0.00,,,0.00,Wunderground v.1.15,2013-02-06 00:19:00,
2013-02-05 19:20:00,23.3,19.5,30.06,SSE,168,1.0,3.0,85,0.00,,,0.00,Wunderground v.1.15,2013-02-06 00:20:00,
2013-02-05 19:21:00,23.2,19.4,30.06,SSE,168,1.0,3.0,85,0.00,,,0.00,Wunderground v.1.15,2013-02-06 00:21:00,
2013-02-05 19:22:00,23.1,19.5,30.06,South,171,2.0,3.0,86,0.00,,,0.00,Wunderground v.1.15,2013-02-06 00:22:00,
2013-02-05 19:24:00,23.0,19.4,30.06,South,169,3.0,4.0,86,0.00,,,0.00,Wunderground v.1.15,2013-02-06 00:24:00,
2013-02-05 19:25:00,22.9,19.3,30.06,SSE,161,3.0,6.0,86,0.00,,,0.00,Wunderground v.1.15,2013-02-06 00:25:00,
2013-02-05 19:26:00,22.9,19.3,30.06,SSE,166,2.0,6.0,86,0.00,,,0.00,Wunderground v.1.15,2013-02-06 00:26:00,
2013-02-05 19:28:00,22.7,19.1,30.06,SSE,156,2.0,4.0,86,0.00,,,0.00,Wunderground v.1.15,2013-02-06 00:28:00,
2013-02-05 19:29:00,22.7,19.1,30.06,SSE,156,0.0,4.0,86,0.00,,,0.00,Wunderground v.1.15,2013-02-06 00:29:00,
2013-02-05 19:30:00,22.7,19.1,30.06,SSE,156,0.0,4.0,86,0.00,,,0.00,Wunderground v.1.15,2013-02-06 00:30:00,
2013-02-05 19:32:00,22.7,19.1,30.06,SSE,156,1.0,4.0,86,0.00,,,0.00,Wunderground v.1.15,2013-02-06 00:32:00,
2013-02-05 19:33:00,22.7,19.1,30.06,SSE,156,2.0,4.0,86,0.00,,,0.00,Wunderground v.1.15,2013-02-06 00:33:00,
2013-02-05 19:34:00,22.7,19.1,30.06,SSE,156,1.0,4.0,86,0.00,,,0.00,Wunderground v.1.15,2013-02-06 00:34:00,
2013-02-05 19:35:00,22.7,19.1,30.06,SSE,156,2.0,4.0,86,0.00,,,0.00,Wunderground v.1.15,2013-02-06 00:35:00,
2013-02-05 19:37:00,22.6,19.0,30.06,SSE,156,1.0,2.0,86,0.00,,,0.00,Wunderground v.1.15,2013-02-06 00:37:00,
2013-02-05 19:39:00,22.6,19.0,30.06,SSE,156,1.0,2.0,86,0.00,,,0.00,Wunderground v.1.15,2013-02-06 00:39:00,
2013-02-05 19:40:00,22.6,19.0,30.06,SSE,156,1.0,2.0,86,0.00,,,0.00,Wunderground v.1.15,2013-02-06 00:40:00,
2013-02-05 19:42:00,22.5,18.9,30.06,SSE,156,0.0,2.0,86,0.00,,,0.00,Wunderground v.1.15,2013-02-06 00:42:00,
2013-02-05 19:44:00,22.5,18.9,30.06,SSE,156,0.0,2.0,86,0.00,,,0.00,Wunderground v.1.15,2013-02-06 00:44:00,
2013-02-05 19:45:00,22.6,19.0,30.06,SSE,156,0.0,2.0,86,0.00,,,0.00,Wunderground v.1.15,2013-02-06 00:45:00,
2013-02-05 19:48:00,22.6,19.3,30.06,SSE,156,0.0,1.0,87,0.00,,,0.00,Wunderground v.1.15,2013-02-06 00:48:00,
2013-02-05 19:50:00,22.6,19.3,30.06,SSE,156,0.0,1.0,87,0.00,,,0.00,Wunderground v.1.15,2013-02-06 00:50:00,
2013-02-05 19:51:00,22.6,19.3,30.06,SSE,156,1.0,1.0,87,0.00,,,0.00,Wunderground v.1.15,2013-02-06 00:51:00,
2013-02-05 19:53:00,22.6,19.3,30.06,SSE,156,0.0,1.0,87,0.00,,,0.00,Wunderground v.1.15,2013-02-06 00:53:00,
2013-02-05 19:55:00,22.6,19.3,30.06,SSE,156,0.0,1.0,87,0.00,,,0.00,Wunderground v.1.15,2013-02-06 00:55:00,
2013-02-05 19:56:00,22.6,19.3,30.06,SSE,156,0.0,1.0,87,0.00,,,0.00,Wunderground v.1.15,2013-02-06 00:56:00,
2013-02-05 19:58:00,22.6,19.3,30.06,SSE,156,0.0,0.0,87,0.00,,,0.00,Wunderground v.1.15,2013-02-06 00:58:00,
2013-02-05 20:00:00,22.7,19.4,30.06,SSE,156,0.0,0.0,87,0.00,,,0.00,Wunderground v.1.15,2013-02-06 01:00:00,
2013-02-05 20:01:00,22.7,19.4,30.06,SSE,156,0.0,0.0,87,0.00,,,0.00,Wunderground v.1.15,2013-02-06 01:01:00,
2013-02-05 20:03:00,22.8,19.5,30.06,SSE,156,0.0,0.0,87,0.00,,,0.00,Wunderground v.1.15,2013-02-06 01:03:00,
2013-02-05 20:05:00,22.8,19.5,30.07,SSE,156,0.0,1.0,87,0.00,,,0.00,Wunderground v.1.15,2013-02-06 01:05:00,
2013-02-05 20:06:00,22.8,19.5,30.07,SSE,156,0.0,1.0,87,0.00,,,0.00,Wunderground v.1.15,2013-02-06 01:06:00,
2013-02-05 20:08:00,22.8,19.5,30.07,SSE,156,0.0,1.0,87,0.00,,,0.00,Wunderground v.1.15,2013-02-06 01:08:00,
2013-02-05 20:10:00,22.8,19.5,30.07,SSE,156,0.0,1.0,87,0.00,,,0.00,Wunderground v.1.15,2013-02-06 01:10:00,
2013-02-05 20:11:00,22.8,19.5,30.07,SSE,156,0.0,1.0,87,0.00,,,0.00,Wunderground v.1.15,2013-02-06 01:11:00,
2013-02-05 20:13:00,22.8,19.5,30.07,SSE,156,0.0,1.0,87,0.00,,,0.00,Wunderground v.1.15,2013-02-06 01:13:00,
2013-02-05 20:14:00,22.9,19.6,30.07,SSE,156,0.0,1.0,87,0.00,,,0.00,Wunderground v.1.15,2013-02-06 01:14:00,
2013-02-05 20:15:00,22.9,19.6,30.07,SSE,156,0.0,1.0,87,0.00,,,0.00,Wunderground v.1.15,2013-02-06 01:15:00,
2013-02-05 20:16:00,22.9,19.6,30.07,SSE,156,0.0,1.0,87,0.00,,,0.00,Wunderground v.1.15,2013-02-06 01:16:00,
2013-02-05 20:19:00,22.9,19.6,30.07,SSE,156,0.0,0.0,87,0.00,,,0.00,Wunderground v.1.15,2013-02-06 01:19:00,
2013-02-05 20:20:00,22.9,19.6,30.07,SSE,156,0.0,0.0,87,0.00,,,0.00,Wunderground v.1.15,2013-02-06 01:20:00,
2013-02-05 20:21:00,22.9,19.6,30.07,SSE,156,0.0,0.0,87,0.00,,,0.00,Wunderground v.1.15,2013-02-06 01:21:00,
2013-02-05 20:22:00,22.9,19.6,30.07,SSE,156,0.0,0.0,87,0.00,,,0.00,Wunderground v.1.15,2013-02-06 01:22:00,
2013-02-05 20:24:00,22.9,19.6,30.07,SSE,156,0.0,1.0,87,0.00,,,0.00,Wunderground v.1.15,2013-02-06 01:24:00,
2013-02-05 20:25:00,22.9,19.6,30.07,SSE,156,0.0,1.0,87,0.00,,,0.00,Wunderground v.1.15,2013-02-06 01:25:00,
2013-02-05 20:26:00,22.9,19.6,30.07,SSE,156,0.0,1.0,87,0.00,,,0.00,Wunderground v.1.15,2013-02-06 01:26:00,
2013-02-05 20:27:00,22.9,19.6,30.07,SSE,156,0.0,0.0,87,0.00,,,0.00,Wunderground v.1.15,2013-02-06 01:27:00,
2013-02-05 20:29:00,22.7,19.4,30.07,SSE,156,0.0,0.0,87,0.00,,,0.00,Wunderground v.1.15,2013-02-06 01:29:00,
2013-02-05 20:30:00,22.7,19.4,30.07,SSE,156,0.0,0.0,87,0.00,,,0.00,Wunderground v.1.15,2013-02-06 01:30:00,
2013-02-05 20:32:00,22.7,19.4,30.07,SSE,156,0.0,0.0,87,0.00,,,0.00,Wunderground v.1.15,2013-02-06 01:32:00,
2013-02-05 20:34:00,22.7,19.4,30.07,SSE,156,0.0,1.0,87,0.00,,,0.00,Wunderground v.1.15,2013-02-06 01:34:00,
2013-02-05 20:35:00,22.6,19.3,30.07,SSE,156,0.0,1.0,87,0.00,,,0.00,Wunderground v.1.15,2013-02-06 01:35:00,
2013-02-05 20:37:00,22.6,19.3,30.07,SSE,156,0.0,0.0,87,0.00,,,0.00,Wunderground v.1.15,2013-02-06 01:37:00,
2013-02-05 20:38:00,22.6,19.3,30.07,SSE,156,0.0,0.0,87,0.00,,,0.00,Wunderground v.1.15,2013-02-06 01:38:00,
2013-02-05 20:39:00,22.6,19.6,30.07,SSE,156,0.0,0.0,88,0.00,,,0.00,Wunderground v.1.15,2013-02-06 01:39:00,
2013-02-05 20:41:00,22.6,19.6,30.07,SSE,156,0.0,0.0,88,0.00,,,0.00,Wunderground v.1.15,2013-02-06 01:41:00,
2013-02-05 20:43:00,22.6,19.6,30.07,SSE,156,0.0,0.0,88,0.00,,,0.00,Wunderground v.1.15,2013-02-06 01:43:00,
2013-02-05 20:45:00,22.7,19.7,30.07,SSE,156,0.0,0.0,88,0.00,,,0.00,Wunderground v.1.15,2013-02-06 01:45:00,
2013-02-05 20:46:00,22.7,19.7,30.07,SSE,156,0.0,0.0,88,0.00,,,0.00,Wunderground v.1.15,2013-02-06 01:46:00,
2013-02-05 20:48:00,22.7,19.7,30.07,SSE,156,0.0,0.0,88,0.00,,,0.00,Wunderground v.1.15,2013-02-06 01:48:00,
2013-02-05 20:50:00,22.8,19.8,30.07,SSE,156,0.0,0.0,88,0.00,,,0.00,Wunderground v.1.15,2013-02-06 01:50:00,
2013-02-05 20:51:00,22.8,19.8,30.07,SSE,156,0.0,1.0,88,0.00,,,0.00,Wunderground v.1.15,2013-02-06 01:51:00,
2013-02-05 20:53:00,22.8,19.8,30.07,SSE,156,0.0,1.0,88,0.00,,,0.00,Wunderground v.1.15,2013-02-06 01:53:00,
2013-02-05 20:55:00,22.9,19.9,30.07,SSE,156,0.0,1.0,88,0.00,,,0.00,Wunderground v.1.15,2013-02-06 01:55:00,
2013-02-05 20:56:00,22.9,20.1,30.07,SSE,156,0.0,1.0,89,0.00,,,0.00,Wunderground v.1.15,2013-02-06 01:56:00,
2013-02-05 20:58:00,23.0,20.2,30.07,SSE,156,0.0,0.0,89,0.00,,,0.00,Wunderground v.1.15,2013-02-06 01:58:00,
2013-02-05 20:59:00,23.0,20.2,30.07,SSE,156,0.0,0.0,89,0.00,,,0.00,Wunderground v.1.15,2013-02-06 01:59:00,
2013-02-05 21:00:00,23.0,20.2,30.07,SSE,156,0.0,0.0,89,0.00,,,0.00,Wunderground v.1.15,2013-02-06 02:00:00,
2013-02-05 21:03:00,23.0,20.0,30.07,SSE,156,0.0,0.0,88,0.00,,,0.00,Wunderground v.1.15,2013-02-06 02:03:00,
2013-02-05 21:04:00,23.0,20.0,30.07,SSE,156,0.0,0.0,88,0.00,,,0.00,Wunderground v.1.15,2013-02-06 02:04:00,
2013-02-05 21:05:00,23.0,20.2,30.07,SSE,156,0.0,0.0,89,0.00,,,0.00,Wunderground v.1.15,2013-02-06 02:05:00,
2013-02-05 21:08:00,23.0,20.2,30.07,SSE,156,0.0,0.0,89,0.00,,,0.00,Wunderground v.1.15,2013-02-06 02:08:00,
2013-02-05 21:09:00,23.0,20.0,30.07,SSE,156,0.0,0.0,88,0.00,,,0.00,Wunderground v.1.15,2013-02-06 02:09:00,
2013-02-05 21:10:00,23.0,20.0,30.07,SSE,156,0.0,0.0,88,0.00,,,0.00,Wunderground v.1.15,2013-02-06 02:10:00,
2013-02-05 21:13:00,23.0,20.0,30.07,SSE,156,0.0,1.0,88,0.00,,,0.00,Wunderground v.1.15,2013-02-06 02:13:00,
2013-02-05 21:14:00,23.0,20.0,30.07,SSE,156,0.0,1.0,88,0.00,,,0.00,Wunderground v.1.15,2013-02-06 02:14:00,
2013-02-05 21:15:00,23.0,20.0,30.07,SSE,156,0.0,1.0,88,0.00,,,0.00,Wunderground v.1.15,2013-02-06 02:15:00,
2013-02-05 21:16:00,23.0,20.0,30.06,SSE,156,1.0,1.0,88,0.00,,,0.00,Wunderground v.1.15,2013-02-06 02:16:00,
2013-02-05 21:18:00,23.0,20.0,30.06,SSE,156,1.0,2.0,88,0.00,,,0.00,Wunderground v.1.15,2013-02-06 02:18:00,
2013-02-05 21:20:00,23.0,20.0,30.06,SSE,156,1.0,2.0,88,0.00,,,0.00,Wunderground v.1.15,2013-02-06 02:20:00,
2013-02-05 21:21:00,23.0,20.0,30.06,SSE,156,1.0,2.0,88,0.00,,,0.00,Wunderground v.1.15,2013-02-06 02:21:00,
2013-02-05 21:24:00,23.0,20.0,30.07,SSE,156,0.0,2.0,88,0.00,,,0.00,Wunderground v.1.15,2013-02-06 02:24:00,
2013-02-05 21:25:00,23.0,20.0,30.07,SSE,156,0.0,2.0,88,0.00,,,0.00,Wunderground v.1.15,2013-02-06 02:25:00,
2013-02-05 21:27:00,23.0,20.0,30.07,SSE,156,0.0,0.0,88,0.00,,,0.00,Wunderground v.1.15,2013-02-06 02:27:00,
2013-02-05 21:29:00,23.6,20.6,30.07,SSE,156,0.0,1.0,88,0.00,,,0.00,Wunderground v.1.15,2013-02-06 02:29:00,
2013-02-05 21:30:00,25.5,22.7,30.07,SSE,156,0.0,1.0,89,0.00,,,0.00,Wunderground v.1.15,2013-02-06 02:30:00,
2013-02-05 21:32:00,29.9,27.3,30.07,SSE,156,0.0,1.0,90,0.00,,,0.00,Wunderground v.1.15,2013-02-06 02:32:00,
2013-02-05 21:34:00,34.9,32.3,30.07,SSE,156,0.0,1.0,90,0.00,,,0.00,Wunderground v.1.15,2013-02-06 02:34:00,
2013-02-05 21:35:00,36.0,33.4,30.07,SSE,156,0.0,1.0,90,0.00,,,0.00,Wunderground v.1.15,2013-02-06 02:35:00,
2013-02-05 21:36:00,36.2,33.5,30.07,SSE,156,1.0,1.0,90,0.00,,,0.00,Wunderground v.1.15,2013-02-06 02:36:00,
2013-02-05 21:37:00,39.2,36.2,30.07,SSE,156,0.0,1.0,89,0.00,,,0.00,Wunderground v.1.15,2013-02-06 02:37:00,
2013-02-05 21:40:00,41.6,38.6,30.07,SSE,156,0.0,1.0,89,0.00,,,0.00,Wunderground v.1.15,2013-02-06 02:40:00,
2013-02-05 21:41:00,43.3,40.3,30.07,SSE,156,0.0,1.0,89,0.00,,,0.00,Wunderground v.1.15,2013-02-06 02:41:00,
2013-02-05 21:42:00,44.6,41.6,30.07,SSE,156,0.0,1.0,89,0.00,,,0.00,Wunderground v.1.15,2013-02-06 02:42:00,
2013-02-05 21:44:00,45.2,42.2,30.06,SSE,156,0.0,1.0,89,0.00,,,0.00,Wunderground v.1.15,2013-02-06 02:44:00,
2013-02-05 21:45:00,45.7,42.6,30.06,SSE,156,0.0,1.0,89,0.00,,,0.00,Wunderground v.1.15,2013-02-06 02:45:00,
2013-02-05 21:46:00,45.6,42.5,30.06,SSE,156,0.0,1.0,89,0.00,,,0.00,Wunderground v.1.15,2013-02-06 02:46:00,
2013-02-05 21:47:00,46.1,43.0,30.06,SSE,156,0.0,0.0,89,0.00,,,0.00,Wunderground v.1.15,2013-02-06 02:47:00,
2013-02-05 21:49:00,46.3,43.2,30.07,SSE,156,0.0,1.0,89,0.00,,,0.00,Wunderground v.1.15,2013-02-06 02:49:00,
2013-02-05 21:50:00,46.1,43.0,30.06,SSE,156,0.0,1.0,89,0.00,,,0.00,Wunderground v.1.15,2013-02-06 02:50:00,
2013-02-05 21:52:00,43.6,40.9,30.07,SSE,156,0.0,1.0,90,0.00,,,0.00,Wunderground v.1.15,2013-02-06 02:52:00,
2013-02-05 21:55:00,39.4,36.4,30.06,SSE,156,0.0,1.0,89,0.00,,,0.00,Wunderground v.1.15,2013-02-06 02:55:00,
2013-02-05 21:57:00,40.4,37.4,30.06,SSE,156,1.0,1.0,89,0.00,,,0.00,Wunderground v.1.15,2013-02-06 02:57:00,
2013-02-05 22:00:00,39.5,36.5,30.06,SSE,155,0.0,2.0,89,0.00,,,0.00,Wunderground v.1.15,2013-02-06 03:00:00,
2013-02-05 22:01:00,39.5,36.5,30.06,SSE,155,1.0,2.0,89,0.00,,,0.00,Wunderground v.1.15,2013-02-06 03:01:00,
2013-02-05 22:02:00,38.3,35.3,30.06,SSE,155,0.0,2.0,89,0.00,,,0.00,Wunderground v.1.15,2013-02-06 03:02:00,
2013-02-05 22:03:00,37.6,34.7,30.06,SSE,155,0.0,2.0,89,0.00,,,0.00,Wunderground v.1.15,2013-02-06 03:03:00,
2013-02-05 22:05:00,34.3,31.7,30.06,SSE,155,0.0,2.0,90,0.00,,,0.00,Wunderground v.1.15,2013-02-06 03:05:00,
2013-02-05 22:08:00,31.2,28.9,30.06,SSE,155,0.0,1.0,91,0.00,,,0.00,Wunderground v.1.15,2013-02-06 03:08:00,
2013-02-05 22:11:00,27.8,25.5,30.06,SSE,155,1.0,2.0,91,0.00,,,0.00,Wunderground v.1.15,2013-02-06 03:11:00,
2013-02-05 22:13:00,26.6,24.3,30.06,SSE,155,0.0,2.0,91,0.00,,,0.00,Wunderground v.1.15,2013-02-06 03:13:00,
2013-02-05 22:16:00,25.3,23.0,30.06,SSE,155,0.0,2.0,91,0.00,,,0.00,Wunderground v.1.15,2013-02-06 03:16:00,
2013-02-05 22:18:00,24.8,22.3,30.06,SSE,155,0.0,0.0,90,0.00,,,0.00,Wunderground v.1.15,2013-02-06 03:18:00,
2013-02-05 22:19:00,24.7,22.2,30.06,SSE,155,0.0,0.0,90,0.00,,,0.00,Wunderground v.1.15,2013-02-06 03:19:00,
2013-02-05 22:21:00,24.4,21.9,30.06,SSE,155,1.0,1.0,90,0.00,,,0.00,Wunderground v.1.15,2013-02-06 03:21:00,
2013-02-05 22:24:00,24.2,21.7,30.05,SSE,155,0.0,1.0,90,0.00,,,0.00,Wunderground v.1.15,2013-02-06 03:24:00,
2013-02-05 22:27:00,23.8,21.3,30.05,SSE,155,1.0,1.0,90,0.00,,,0.00,Wunderground v.1.15,2013-02-06 03:27:00,
2013-02-05 22:29:00,23.5,21.0,30.05,SSE,155,0.0,1.0,90,0.00,,,0.00,Wunderground v.1.15,2013-02-06 03:29:00,
2013-02-05 22:30:00,23.4,20.9,30.05,SSE,155,0.0,1.0,90,0.00,,,0.00,Wunderground v.1.15,2013-02-06 03:30:00,
2013-02-05 22:33:00,23.2,21.0,30.05,SSE,155,2.0,2.0,91,0.00,,,0.00,Wunderground v.1.15,2013-02-06 03:33:00,
2013-02-05 22:34:00,23.1,20.9,30.05,SSE,155,1.0,2.0,91,0.00,,,0.00,Wunderground v.1.15,2013-02-06 03:34:00,
2013-02-05 22:35:00,23.0,20.8,30.05,SSE,155,1.0,2.0,91,0.00,,,0.00,Wunderground v.1.15,2013-02-06 03:35:00,
2013-02-05 22:38:00,22.6,20.4,30.05,SSE,155,0.0,1.0,91,0.00,,,0.00,Wunderground v.1.15,2013-02-06 03:38:00,
2013-02-05 22:39:00,22.6,20.4,30.05,SSE,155,0.0,1.0,91,0.00,,,0.00,Wunderground v.1.15,2013-02-06 03:39:00,
2013-02-05 22:40:00,22.6,20.4,30.05,SSE,155,2.0,2.0,91,0.00,,,0.00,Wunderground v.1.15,2013-02-06 03:40:00,
2013-02-05 22:41:00,22.6,20.4,30.05,SSE,155,0.0,2.0,91,0.00,,,0.00,Wunderground v.1.15,2013-02-06 03:41:00,
2013-02-05 22:44:00,22.6,20.4,30.05,SSE,155,0.0,2.0,91,0.00,,,0.00,Wunderground v.1.15,2013-02-06 03:44:00,
2013-02-05 22:45:00,22.6,20.4,30.05,SSE,155,0.0,2.0,91,0.00,,,0.00,Wunderground v.1.15,2013-02-06 03:45:00,
2013-02-05 22:46:00,22.6,20.4,30.04,SSE,155,0.0,2.0,91,0.00,,,0.00,Wunderground v.1.15,2013-02-06 03:46:00,
2013-02-05 22:49:00,22.6,20.4,30.04,SSE,155,2.0,2.0,91,0.00,,,0.00,Wunderground v.1.15,2013-02-06 03:49:00,
2013-02-05 22:50:00,22.5,20.3,30.04,SSE,155,1.0,2.0,91,0.00,,,0.00,Wunderground v.1.15,2013-02-06 03:50:00,
2013-02-05 22:51:00,22.5,20.3,30.04,SSE,155,1.0,2.0,91,0.00,,,0.00,Wunderground v.1.15,2013-02-06 03:51:00,
2013-02-05 22:54:00,22.3,20.1,30.04,SSE,155,1.0,2.0,91,0.00,,,0.00,Wunderground v.1.15,2013-02-06 03:54:00,
2013-02-05 22:55:00,22.3,20.1,30.04,SSE,155,2.0,2.0,91,0.00,,,0.00,Wunderground v.1.15,2013-02-06 03:55:00,
2013-02-05 22:57:00,22.2,20.0,30.04,SSE,151,1.0,1.0,91,0.00,,,0.00,Wunderground v.1.15,2013-02-06 03:57:00,
2013-02-05 22:59:00,22.2,20.0,30.04,SSE,151,1.0,2.0,91,0.00,,,0.00,Wunderground v.1.15,2013-02-06 03:59:00,
2013-02-05 23:00:00,22.2,20.0,30.04,SSE,151,1.0,2.0,91,0.00,,,0.00,Wunderground v.1.15,2013-02-06 04:00:00,
2013-02-05 23:01:00,22.2,20.0,30.04,SSE,151,0.0,2.0,91,0.00,,,0.00,Wunderground v.1.15,2013-02-06 04:01:00,
2013-02-05 23:02:00,22.2,20.0,30.04,SSE,151,0.0,2.0,91,0.00,,,0.00,Wunderground v.1.15,2013-02-06 04:02:00,
2013-02-05 23:05:00,22.3,20.1,30.04,SSE,151,0.0,2.0,91,0.00,,,0.00,Wunderground v.1.15,2013-02-06 04:05:00,
2013-02-05 23:06:00,22.3,20.1,30.04,SSE,151,0.0,2.0,91,0.00,,,0.00,Wunderground v.1.15,2013-02-06 04:06:00,
2013-02-05 23:07:00,22.6,20.4,30.05,SSE,151,0.0,0.0,91,0.00,,,0.00,Wunderground v.1.15,2013-02-06 04:07:00,
2013-02-05 23:10:00,22.6,20.4,30.05,SSE,151,0.0,0.0,91,0.00,,,0.00,Wunderground v.1.15,2013-02-06 04:10:00,
2013-02-05 23:11:00,22.5,20.3,30.05,SSE,151,1.0,1.0,91,0.00,,,0.00,Wunderground v.1.15,2013-02-06 04:11:00,
2013-02-05 23:12:00,22.5,20.3,30.05,SSE,151,2.0,2.0,91,0.00,,,0.00,Wunderground v.1.15,2013-02-06 04:12:00,
2013-02-05 23:13:00,22.5,20.3,30.05,SSE,151,1.0,2.0,91,0.00,,,0.00,Wunderground v.1.15,2013-02-06 04:13:00,
2013-02-05 23:15:00,22.5,20.3,30.05,SSE,151,0.0,2.0,91,0.00,,,0.00,Wunderground v.1.15,2013-02-06 04:15:00,
2013-02-05 23:16:00,22.6,20.4,30.05,SSE,151,0.0,2.0,91,0.00,,,0.00,Wunderground v.1.15,2013-02-06 04:16:00,
2013-02-05 23:18:00,22.6,20.4,30.05,SSE,151,1.0,2.0,91,0.00,,,0.00,Wunderground v.1.15,2013-02-06 04:18:00,
2013-02-05 23:20:00,22.7,20.5,30.05,SSE,151,0.0,2.0,91,0.00,,,0.00,Wunderground v.1.15,2013-02-06 04:20:00,
2013-02-05 23:22:00,22.7,20.5,30.05,SSE,151,1.0,2.0,91,0.00,,,0.00,Wunderground v.1.15,2013-02-06 04:22:00,
2013-02-05 23:23:00,22.7,20.5,30.05,SSE,151,0.0,2.0,91,0.00,,,0.00,Wunderground v.1.15,2013-02-06 04:23:00,
2013-02-05 23:25:00,22.7,20.5,30.05,SSE,151,0.0,2.0,91,0.00,,,0.00,Wunderground v.1.15,2013-02-06 04:25:00,
2013-02-05 23:27:00,22.7,20.5,30.05,SSE,151,0.0,0.0,91,0.00,,,0.00,Wunderground v.1.15,2013-02-06 04:27:00,
2013-02-05 23:28:00,22.7,20.5,30.05,SSE,151,0.0,1.0,91,0.00,,,0.00,Wunderground v.1.15,2013-02-06 04:28:00,
2013-02-05 23:31:00,22.6,20.4,30.05,SSE,151,0.0,1.0,91,0.00,,,0.00,Wunderground v.1.15,2013-02-06 04:31:00,
2013-02-05 23:32:00,22.7,20.5,30.05,SSE,151,0.0,1.0,91,0.00,,,0.00,Wunderground v.1.15,2013-02-06 04:32:00,
2013-02-05 23:33:00,22.6,20.4,30.05,SSE,151,0.0,1.0,91,0.00,,,0.00,Wunderground v.1.15,2013-02-06 04:33:00,
2013-02-05 23:36:00,22.6,20.1,30.05,SSE,151,0.0,1.0,90,0.00,,,0.00,Wunderground v.1.15,2013-02-06 04:36:00,
2013-02-05 23:38:00,22.7,20.2,30.05,SSE,151,0.0,0.0,90,0.00,,,0.00,Wunderground v.1.15,2013-02-06 04:38:00,
2013-02-05 23:41:00,22.6,20.1,30.05,SSE,151,0.0,1.0,90,0.00,,,0.00,Wunderground v.1.15,2013-02-06 04:41:00,
2013-02-05 23:42:00,22.7,20.2,30.04,SSE,151,0.0,0.0,90,0.00,,,0.00,Wunderground v.1.15,2013-02-06 04:42:00,
2013-02-05 23:43:00,22.5,20.0,30.05,SSE,151,0.0,1.0,90,0.00,,,0.00,Wunderground v.1.15,2013-02-06 04:43:00,
2013-02-05 23:44:00,22.5,20.0,30.05,SSE,151,0.0,1.0,90,0.00,,,0.00,Wunderground v.1.15,2013-02-06 04:44:00,
2013-02-05 23:45:00,22.7,20.2,30.04,SSE,151,0.0,0.0,90,0.00,,,0.00,Wunderground v.1.15,2013-02-06 04:45:00,
2013-02-05 23:46:00,22.7,20.2,30.04,SSE,151,1.0,2.0,90,0.00,,,0.00,Wunderground v.1.15,2013-02-06 04:46:00,
2013-02-05 23:47:00,22.5,20.0,30.05,SSE,151,1.0,1.0,90,0.00,,,0.00,Wunderground v.1.15,2013-02-06 04:47:00,
2013-02-05 23:48:00,22.7,20.2,30.04,SSE,151,1.0,2.0,90,0.00,,,0.00,Wunderground v.1.15,2013-02-06 04:48:00,
2013-02-05 23:49:00,22.5,20.0,30.05,SSE,151,0.0,1.0,90,0.00,,,0.00,Wunderground v.1.15,2013-02-06 04:49:00,
2013-02-05 23:52:00,22.5,20.0,30.04,SSE,151,1.0,1.0,90,0.00,,,0.00,Wunderground v.1.15,2013-02-06 04:52:00,
2013-02-05 23:54:00,22.5,20.0,30.04,SSE,151,0.0,1.0,90,0.00,,,0.00,Wunderground v.1.15,2013-02-06 04:54:00,
2013-02-05 23:57:00,22.6,20.1,30.04,SSE,151,0.0,0.0,90,0.00,,,0.00,Wunderground v.1.15,2013-02-06 04:57:00,
2013-02-05 23:59:00,22.6,20.1,30.04,SSE,151,0.0,0.0,90,0.00,,,0.00,Wunderground v.1.15,2013-02-06 04:59:00,